Time,TemperatureF,DewpointF,PressureIn,WindDirection,WindDirectionDegrees,WindSpeedMPH,WindSpeedGustMPH,Humidity,HourlyPrecipIn,Conditions,Clouds,dailyrainin,SoftwareType,DateUTC
2013-01-03 00:00:00,27.9,3.2,29.47,North,7,0.0,0.0,34,0.00,,,0.00,VWS V14.00,2013-01-03 06:00:00,
2013-01-03 00:04:00,27.9,3.8,29.47,North,7,0.0,0.0,35,0.00,,,0.00,VWS V14.00,2013-01-03 06:04:00,
2013-01-03 00:05:00,28.0,4.5,29.47,North,7,0.0,0.0,36,0.00,,,0.00,VWS V14.00,2013-01-03 06:05:00,
2013-01-03 00:07:00,28.0,4.5,29.47,North,7,0.0,0.0,36,0.00,,,0.00,VWS V14.00,2013-01-03 06:07:00,
2013-01-03 00:09:00,28.0,4.5,29.47,North,7,0.0,0.0,36,0.00,,,0.00,VWS V14.00,2013-01-03 06:09:00,
2013-01-03 00:10:00,27.9,4.4,29.47,North,7,0.0,0.0,36,0.00,,,0.00,VWS V14.00,2013-01-03 06:10:00,
2013-01-03 00:11:00,27.9,4.4,29.47,North,7,0.0,0.0,36,0.00,,,0.00,VWS V14.00,2013-01-03 06:11:00,
2013-01-03 00:12:00,27.9,4.4,29.47,North,7,0.0,0.0,36,0.00,,,0.00,VWS V14.00,2013-01-03 06:12:00,
2013-01-03 00:15:00,27.7,4.2,29.47,North,7,0.0,0.0,36,0.00,,,0.00,VWS V14.00,2013-01-03 06:15:00,
2013-01-03 00:16:00,27.7,4.2,29.47,North,7,0.0,0.0,36,0.00,,,0.00,VWS V14.00,2013-01-03 06:16:00,
2013-01-03 00:17:00,27.7,4.2,29.47,North,7,0.0,0.0,36,0.00,,,0.00,VWS V14.00,2013-01-03 06:17:00,
2013-01-03 00:18:00,27.7,4.2,29.47,North,7,0.0,0.0,36,0.00,,,0.00,VWS V14.00,2013-01-03 06:18:00,
2013-01-03 00:20:00,27.7,4.8,29.47,North,7,0.0,0.0,37,0.00,,,0.00,VWS V14.00,2013-01-03 06:20:00,
2013-01-03 00:21:00,27.7,4.8,29.47,North,7,0.0,0.0,37,0.00,,,0.00,VWS V14.00,2013-01-03 06:21:00,
2013-01-03 00:22:00,27.7,4.8,29.47,North,7,0.0,0.0,37,0.00,,,0.00,VWS V14.00,2013-01-03 06:22:00,
2013-01-03 00:23:00,27.7,4.2,29.47,North,7,0.0,0.0,36,0.00,,,0.00,VWS V14.00,2013-01-03 06:23:00,
2013-01-03 00:25:00,27.5,4.1,29.47,North,7,0.0,0.0,36,0.00,,,0.00,VWS V14.00,2013-01-03 06:25:00,
2013-01-03 00:26:00,27.5,4.1,29.47,North,7,0.0,0.0,36,0.00,,,0.00,VWS V14.00,2013-01-03 06:26:00,
2013-01-03 00:28:00,27.1,3.7,29.47,North,7,0.0,0.0,36,0.00,,,0.00,VWS V14.00,2013-01-03 06:28:00,
2013-01-03 00:31:00,27.0,3.6,29.47,North,7,0.0,0.0,36,0.00,,,0.00,VWS V14.00,2013-01-03 06:31:00,
2013-01-03 00:32:00,27.0,3.0,29.47,North,7,0.0,0.0,35,0.00,,,0.00,VWS V14.00,2013-01-03 06:32:00,
2013-01-03 00:33:00,27.0,3.0,29.47,North,7,0.0,0.0,35,0.00,,,0.00,VWS V14.00,2013-01-03 06:33:00,
2013-01-03 00:34:00,27.0,3.0,29.47,North,7,0.0,0.0,35,0.00,,,0.00,VWS V14.00,2013-01-03 06:34:00,
2013-01-03 00:36:00,27.1,3.7,29.47,North,7,0.0,0.0,36,0.00,,,0.00,VWS V14.00,2013-01-03 06:36:00,
2013-01-03 00:38:00,27.3,4.5,29.47,North,7,0.0,0.0,37,0.00,,,0.00,VWS V14.00,2013-01-03 06:38:00,
2013-01-03 00:39:00,27.5,5.2,29.47,North,7,0.0,0.0,38,0.00,,,0.00,VWS V14.00,2013-01-03 06:39:00,
2013-01-03 00:40:00,27.7,6.0,29.47,North,7,0.0,0.0,39,0.00,,,0.00,VWS V14.00,2013-01-03 06:40:00,
2013-01-03 00:42:00,27.5,6.4,29.47,North,7,0.0,0.0,40,0.00,,,0.00,VWS V14.00,2013-01-03 06:42:00,
2013-01-03 00:43:00,27.3,6.7,29.47,North,7,0.0,0.0,41,0.00,,,0.00,VWS V14.00,2013-01-03 06:43:00,
2013-01-03 00:44:00,27.1,6.6,29.47,North,7,0.0,0.0,41,0.00,,,0.00,VWS V14.00,2013-01-03 06:44:00,
2013-01-03 00:46:00,27.1,6.6,29.47,North,7,0.0,0.0,41,0.00,,,0.00,VWS V14.00,2013-01-03 06:46:00,
2013-01-03 00:47:00,27.1,6.6,29.47,North,7,0.0,0.0,41,0.00,,,0.00,VWS V14.00,2013-01-03 06:47:00,
2013-01-03 00:48:00,27.3,6.7,29.47,North,7,0.0,0.0,41,0.00,,,0.00,VWS V14.00,2013-01-03 06:48:00,
2013-01-03 00:49:00,27.3,6.7,29.47,North,7,0.0,0.0,41,0.00,,,0.00,VWS V14.00,2013-01-03 06:49:00,
2013-01-03 00:51:00,27.3,7.3,29.47,North,7,0.0,0.0,42,0.00,,,0.00,VWS V14.00,2013-01-03 06:51:00,
2013-01-03 00:53:00,27.0,6.9,29.47,North,7,0.0,0.0,42,0.00,,,0.00,VWS V14.00,2013-01-03 06:53:00,
2013-01-03 00:54:00,26.6,6.6,29.47,North,7,0.0,0.0,42,0.00,,,0.00,VWS V14.00,2013-01-03 06:54:00,
2013-01-03 00:57:00,26.4,5.9,29.47,North,7,0.0,0.0,41,0.00,,,0.00,VWS V14.00,2013-01-03 06:57:00,
2013-01-03 00:58:00,26.4,5.9,29.47,North,7,0.0,0.0,41,0.00,,,0.00,VWS V14.00,2013-01-03 06:58:00,
2013-01-03 01:00:00,26.4,5.9,29.47,North,7,0.0,0.0,41,0.00,,,0.00,VWS V14.00,2013-01-03 07:00:00,
2013-01-03 01:03:00,26.4,6.4,29.47,North,7,0.0,0.0,42,0.00,,,0.00,VWS V14.00,2013-01-03 07:03:00,
2013-01-03 01:04:00,26.4,7.0,29.47,North,7,0.0,0.0,43,0.00,,,0.00,VWS V14.00,2013-01-03 07:04:00,
2013-01-03 01:05:00,26.2,6.8,29.47,North,7,0.0,0.0,43,0.00,,,0.00,VWS V14.00,2013-01-03 07:05:00,
2013-01-03 01:08:00,26.1,6.1,29.47,North,7,0.0,0.0,42,0.00,,,0.00,VWS V14.00,2013-01-03 07:08:00,
2013-01-03 01:09:00,26.1,6.1,29.47,North,7,0.0,0.0,42,0.00,,,0.00,VWS V14.00,2013-01-03 07:09:00,
2013-01-03 01:10:00,26.1,5.6,29.47,North,7,0.0,0.0,41,0.00,,,0.00,VWS V14.00,2013-01-03 07:10:00,
2013-01-03 01:11:00,25.7,4.7,29.47,North,7,0.0,0.0,40,0.00,,,0.00,VWS V14.00,2013-01-03 07:11:00,
2013-01-03 01:13:00,25.9,4.9,29.47,North,7,0.0,0.0,40,0.00,,,0.00,VWS V14.00,2013-01-03 07:13:00,
2013-01-03 01:15:00,25.9,5.4,29.47,North,7,0.0,0.0,41,0.00,,,0.00,VWS V14.00,2013-01-03 07:15:00,
2013-01-03 01:19:00,26.1,7.6,29.47,North,7,0.0,0.0,45,0.00,,,0.00,VWS V14.00,2013-01-03 07:19:00,
2013-01-03 01:20:00,26.1,7.6,29.47,North,7,0.0,0.0,45,0.00,,,0.00,VWS V14.00,2013-01-03 07:20:00,
2013-01-03 01:21:00,26.1,7.6,29.47,North,7,0.0,0.0,45,0.00,,,0.00,VWS V14.00,2013-01-03 07:21:00,
2013-01-03 01:24:00,25.7,7.3,29.47,North,7,0.0,0.0,45,0.00,,,0.00,VWS V14.00,2013-01-03 07:24:00,
2013-01-03 01:25:00,25.5,6.7,29.47,North,7,0.0,0.0,44,0.00,,,0.00,VWS V14.00,2013-01-03 07:25:00,
2013-01-03 01:27:00,25.5,6.2,29.47,North,7,0.0,0.0,43,0.00,,,0.00,VWS V14.00,2013-01-03 07:27:00,
2013-01-03 01:29:00,25.3,5.5,29.47,North,7,0.0,0.0,42,0.00,,,0.00,VWS V14.00,2013-01-03 07:29:00,
2013-01-03 01:30:00,25.2,4.8,29.47,North,7,0.0,0.0,41,0.00,,,0.00,VWS V14.00,2013-01-03 07:30:00,
2013-01-03 01:31:00,25.2,4.8,29.47,North,7,0.0,0.0,41,0.00,,,0.00,VWS V14.00,2013-01-03 07:31:00,
2013-01-03 01:33:00,25.0,4.1,29.47,North,7,0.0,0.0,40,0.00,,,0.00,VWS V14.00,2013-01-03 07:33:00,
2013-01-03 01:35:00,24.8,4.4,29.47,North,7,0.0,0.0,41,0.00,,,0.00,VWS V14.00,2013-01-03 07:35:00,
2013-01-03 01:36:00,25.0,4.6,29.47,North,7,0.0,0.0,41,0.00,,,0.00,VWS V14.00,2013-01-03 07:36:00,
2013-01-03 01:38:00,25.3,6.0,29.47,North,7,0.0,0.0,43,0.00,,,0.00,VWS V14.00,2013-01-03 07:38:00,
2013-01-03 01:40:00,25.5,7.6,29.47,North,7,0.0,0.0,46,0.00,,,0.00,VWS V14.00,2013-01-03 07:40:00,
2013-01-03 01:41:00,25.5,8.6,29.47,North,7,0.0,0.0,48,0.00,,,0.00,VWS V14.00,2013-01-03 07:41:00,
2013-01-03 01:42:00,25.5,8.6,29.47,North,7,0.0,0.0,48,0.00,,,0.00,VWS V14.00,2013-01-03 07:42:00,
2013-01-03 01:43:00,25.5,9.0,29.47,North,7,0.0,0.0,49,0.00,,,0.00,VWS V14.00,2013-01-03 07:43:00,
2013-01-03 01:46:00,25.3,8.4,29.44,North,7,0.0,0.0,48,0.00,,,0.00,VWS V14.00,2013-01-03 07:46:00,
2013-01-03 01:49:00,25.2,8.2,29.44,North,7,0.0,0.0,48,0.00,,,0.00,VWS V14.00,2013-01-03 07:49:00,
2013-01-03 01:50:00,25.0,7.6,29.44,North,7,0.0,0.0,47,0.00,,,0.00,VWS V14.00,2013-01-03 07:50:00,
2013-01-03 01:51:00,25.2,6.8,29.44,North,7,0.0,0.0,45,0.00,,,0.00,VWS V14.00,2013-01-03 07:51:00,
2013-01-03 01:55:00,25.2,6.3,29.44,North,7,0.0,0.0,44,0.00,,,0.00,VWS V14.00,2013-01-03 07:55:00,
2013-01-03 01:57:00,25.0,7.1,29.44,North,7,0.0,0.0,46,0.00,,,0.00,VWS V14.00,2013-01-03 07:57:00,
2013-01-03 01:58:00,25.2,8.2,29.44,North,7,0.0,0.0,48,0.00,,,0.00,VWS V14.00,2013-01-03 07:58:00,
2013-01-03 02:00:00,25.2,9.1,29.44,North,7,0.0,0.0,50,0.00,,,0.00,VWS V14.00,2013-01-03 08:00:00,
2013-01-03 02:02:00,25.5,10.8,29.44,North,7,0.0,0.0,53,0.00,,,0.00,VWS V14.00,2013-01-03 08:02:00,
2013-01-03 02:03:00,25.7,11.4,29.44,North,7,0.0,0.0,54,0.00,,,0.00,VWS V14.00,2013-01-03 08:03:00,
2013-01-03 02:05:00,26.1,14.1,29.44,North,7,0.0,0.0,60,0.00,,,0.00,VWS V14.00,2013-01-03 08:05:00,
2013-01-03 02:07:00,26.2,15.0,29.44,North,7,0.0,0.0,62,0.00,,,0.00,VWS V14.00,2013-01-03 08:07:00,
2013-01-03 02:08:00,26.2,15.0,29.44,North,7,0.0,0.0,62,0.00,,,0.00,VWS V14.00,2013-01-03 08:08:00,
2013-01-03 02:11:00,26.4,15.9,29.44,North,7,0.0,0.0,64,0.00,,,0.00,VWS V14.00,2013-01-03 08:11:00,
2013-01-03 02:13:00,26.6,16.1,29.44,North,7,0.0,0.0,64,0.00,,,0.00,VWS V14.00,2013-01-03 08:13:00,
2013-01-03 02:14:00,26.4,16.3,29.44,North,7,0.0,0.0,65,0.00,,,0.00,VWS V14.00,2013-01-03 08:14:00,
2013-01-03 02:16:00,26.2,15.7,29.47,North,7,0.0,0.0,64,0.00,,,0.00,VWS V14.00,2013-01-03 08:16:00,
2013-01-03 02:19:00,25.7,14.5,29.47,North,7,0.0,0.0,62,0.00,,,0.00,VWS V14.00,2013-01-03 08:19:00,
2013-01-03 02:21:00,25.5,13.2,29.47,North,7,0.0,0.0,59,0.00,,,0.00,VWS V14.00,2013-01-03 08:21:00,
2013-01-03 02:24:00,25.2,10.9,29.47,North,7,0.0,0.0,54,0.00,,,0.00,VWS V14.00,2013-01-03 08:24:00,
2013-01-03 02:25:00,25.2,10.4,29.47,North,7,0.0,0.0,53,0.00,,,0.00,VWS V14.00,2013-01-03 08:25:00,
2013-01-03 02:26:00,25.0,9.0,29.47,North,7,0.0,0.0,50,0.00,,,0.00,VWS V14.00,2013-01-03 08:26:00,
2013-01-03 02:27:00,24.8,8.8,29.47,North,7,0.0,0.0,50,0.00,,,0.00,VWS V14.00,2013-01-03 08:27:00,
2013-01-03 02:30:00,24.3,6.5,29.47,North,7,0.0,0.0,46,0.00,,,0.00,VWS V14.00,2013-01-03 08:30:00,
2013-01-03 02:31:00,23.9,6.6,29.47,North,7,0.0,0.0,47,0.00,,,0.00,VWS V14.00,2013-01-03 08:31:00,
2013-01-03 02:32:00,23.9,7.1,29.47,North,7,0.0,0.0,48,0.00,,,0.00,VWS V14.00,2013-01-03 08:32:00,
2013-01-03 02:35:00,24.4,10.2,29.47,North,7,0.0,0.0,54,0.00,,,0.00,VWS V14.00,2013-01-03 08:35:00,
2013-01-03 02:37:00,24.8,12.5,29.47,North,7,0.0,0.0,59,0.00,,,0.00,VWS V14.00,2013-01-03 08:37:00,
2013-01-03 02:40:00,25.2,14.0,29.47,North,7,0.0,0.0,62,0.00,,,0.00,VWS V14.00,2013-01-03 08:40:00,
2013-01-03 02:43:00,25.0,13.8,29.47,North,7,0.0,0.0,62,0.00,,,0.00,VWS V14.00,2013-01-03 08:43:00,
2013-01-03 02:46:00,24.8,12.5,29.47,North,7,0.0,0.0,59,0.00,,,0.00,VWS V14.00,2013-01-03 08:46:00,
2013-01-03 02:48:00,24.8,11.7,29.47,North,7,0.0,0.0,57,0.00,,,0.00,VWS V14.00,2013-01-03 08:48:00,
2013-01-03 02:52:00,24.6,8.6,29.47,North,7,0.0,0.0,50,0.00,,,0.00,VWS V14.00,2013-01-03 08:52:00,
2013-01-03 02:53:00,24.6,7.7,29.47,North,7,0.0,0.0,48,0.00,,,0.00,VWS V14.00,2013-01-03 08:53:00,
2013-01-03 02:54:00,24.6,7.3,29.47,North,7,0.0,0.0,47,0.00,,,0.00,VWS V14.00,2013-01-03 08:54:00,
2013-01-03 02:57:00,24.4,5.7,29.47,North,7,0.0,0.0,44,0.00,,,0.00,VWS V14.00,2013-01-03 08:57:00,
2013-01-03 02:58:00,24.3,5.0,29.47,North,7,0.0,0.0,43,0.00,,,0.00,VWS V14.00,2013-01-03 08:58:00,
2013-01-03 02:59:00,24.3,5.0,29.47,North,7,0.0,0.0,43,0.00,,,0.00,VWS V14.00,2013-01-03 08:59:00,
2013-01-03 03:00:00,24.1,4.8,29.47,North,7,0.0,0.0,43,0.00,,,0.00,VWS V14.00,2013-01-03 09:00:00,
2013-01-03 03:03:00,23.9,4.2,29.47,North,7,0.0,0.0,42,0.00,,,0.00,VWS V14.00,2013-01-03 09:03:00,
2013-01-03 03:04:00,23.7,4.0,29.47,North,7,0.0,0.0,42,0.00,,,0.00,VWS V14.00,2013-01-03 09:04:00,
2013-01-03 03:06:00,23.7,4.0,29.47,North,7,0.0,0.0,42,0.00,,,0.00,VWS V14.00,2013-01-03 09:06:00,
2013-01-03 03:08:00,23.5,4.3,29.47,North,7,0.0,0.0,43,0.00,,,0.00,VWS V14.00,2013-01-03 09:08:00,
2013-01-03 03:09:00,23.5,4.3,29.47,North,7,0.0,0.0,43,0.00,,,0.00,VWS V14.00,2013-01-03 09:09:00,
2013-01-03 03:12:00,23.5,4.3,29.47,North,7,0.0,0.0,43,0.00,,,0.00,VWS V14.00,2013-01-03 09:12:00,
2013-01-03 03:13:00,23.5,4.3,29.47,North,7,0.0,0.0,43,0.00,,,0.00,VWS V14.00,2013-01-03 09:13:00,
2013-01-03 03:14:00,23.5,4.3,29.47,North,7,0.0,0.0,43,0.00,,,0.00,VWS V14.00,2013-01-03 09:14:00,
2013-01-03 03:18:00,23.4,4.7,29.47,North,7,0.0,0.0,44,0.00,,,0.00,VWS V14.00,2013-01-03 09:18:00,
2013-01-03 03:20:00,23.2,4.5,29.47,North,7,0.0,0.0,44,0.00,,,0.00,VWS V14.00,2013-01-03 09:20:00,
2013-01-03 03:23:00,23.0,5.8,29.47,North,7,0.0,0.0,47,0.00,,,0.00,VWS V14.00,2013-01-03 09:23:00,
2013-01-03 03:24:00,23.0,5.8,29.47,North,7,0.0,0.0,47,0.00,,,0.00,VWS V14.00,2013-01-03 09:24:00,
2013-01-03 03:28:00,22.8,8.3,29.47,North,7,0.0,0.0,53,0.00,,,0.00,VWS V14.00,2013-01-03 09:28:00,
2013-01-03 03:29:00,22.8,9.1,29.47,North,7,0.0,0.0,55,0.00,,,0.00,VWS V14.00,2013-01-03 09:29:00,
2013-01-03 03:30:00,22.8,9.5,29.47,North,7,0.0,0.0,56,0.00,,,0.00,VWS V14.00,2013-01-03 09:30:00,
2013-01-03 03:33:00,22.8,10.6,29.47,North,7,0.0,0.0,59,0.00,,,0.00,VWS V14.00,2013-01-03 09:33:00,
2013-01-03 03:34:00,22.8,10.6,29.47,North,7,0.0,0.0,59,0.00,,,0.00,VWS V14.00,2013-01-03 09:34:00,
2013-01-03 03:35:00,22.8,10.6,29.47,North,7,0.0,0.0,59,0.00,,,0.00,VWS V14.00,2013-01-03 09:35:00,
2013-01-03 03:39:00,22.6,9.3,29.47,North,7,0.0,0.0,56,0.00,,,0.00,VWS V14.00,2013-01-03 09:39:00,
2013-01-03 03:40:00,22.6,8.9,29.47,North,7,0.0,0.0,55,0.00,,,0.00,VWS V14.00,2013-01-03 09:40:00,
2013-01-03 03:41:00,22.5,8.8,29.47,North,7,0.0,0.0,55,0.00,,,0.00,VWS V14.00,2013-01-03 09:41:00,
2013-01-03 03:45:00,22.3,9.0,29.47,North,7,0.0,0.0,56,0.00,,,0.00,VWS V14.00,2013-01-03 09:45:00,
2013-01-03 03:48:00,22.6,10.9,29.47,North,7,0.0,0.0,60,0.00,,,0.00,VWS V14.00,2013-01-03 09:48:00,
2013-01-03 03:50:00,22.8,11.8,29.47,North,7,0.0,0.0,62,0.00,,,0.00,VWS V14.00,2013-01-03 09:50:00,
2013-01-03 03:51:00,22.8,11.8,29.47,North,7,0.0,0.0,62,0.00,,,0.00,VWS V14.00,2013-01-03 09:51:00,
2013-01-03 03:53:00,22.8,12.5,29.47,North,7,0.0,0.0,64,0.00,,,0.00,VWS V14.00,2013-01-03 09:53:00,
2013-01-03 03:55:00,22.8,12.5,29.47,North,7,0.0,0.0,64,0.00,,,0.00,VWS V14.00,2013-01-03 09:55:00,
2013-01-03 03:56:00,22.8,12.5,29.47,North,7,0.0,0.0,64,0.00,,,0.00,VWS V14.00,2013-01-03 09:56:00,
2013-01-03 04:00:00,23.4,11.9,29.47,North,7,0.0,0.0,61,0.00,,,0.00,VWS V14.00,2013-01-03 10:00:00,
2013-01-03 04:01:00,23.4,11.9,29.47,North,7,0.0,0.0,61,0.00,,,0.00,VWS V14.00,2013-01-03 10:01:00,
2013-01-03 04:05:00,23.5,10.6,29.47,North,7,0.0,0.0,57,0.00,,,0.00,VWS V14.00,2013-01-03 10:05:00,
2013-01-03 04:06:00,23.5,10.6,29.47,North,7,0.0,0.0,57,0.00,,,0.00,VWS V14.00,2013-01-03 10:06:00,
2013-01-03 04:07:00,23.5,10.2,29.47,North,7,0.0,0.0,56,0.00,,,0.00,VWS V14.00,2013-01-03 10:07:00,
2013-01-03 04:11:00,23.4,9.6,29.47,North,7,0.0,0.0,55,0.00,,,0.00,VWS V14.00,2013-01-03 10:11:00,
2013-01-03 04:12:00,23.4,9.6,29.47,North,7,0.0,0.0,55,0.00,,,0.00,VWS V14.00,2013-01-03 10:12:00,
2013-01-03 04:16:00,23.4,10.0,29.47,North,7,0.0,0.0,56,0.00,,,0.00,VWS V14.00,2013-01-03 10:16:00,
2013-01-03 04:17:00,23.4,10.0,29.47,North,7,0.0,0.0,56,0.00,,,0.00,VWS V14.00,2013-01-03 10:17:00,
2013-01-03 04:18:00,23.4,10.0,29.47,North,7,0.0,0.0,56,0.00,,,0.00,VWS V14.00,2013-01-03 10:18:00,
2013-01-03 04:23:00,23.5,10.2,29.47,North,7,0.0,0.0,56,0.00,,,0.00,VWS V14.00,2013-01-03 10:23:00,
2013-01-03 04:28:00,23.5,10.6,29.47,North,7,0.0,0.0,57,0.00,,,0.00,VWS V14.00,2013-01-03 10:28:00,
2013-01-03 04:29:00,23.7,11.1,29.47,North,7,0.0,0.0,58,0.00,,,0.00,VWS V14.00,2013-01-03 10:29:00,
2013-01-03 04:30:00,23.7,11.5,29.47,North,7,0.0,0.0,59,0.00,,,0.00,VWS V14.00,2013-01-03 10:30:00,
2013-01-03 04:33:00,24.3,12.4,29.47,North,7,0.0,0.0,60,0.00,,,0.00,VWS V14.00,2013-01-03 10:33:00,
2013-01-03 04:34:00,24.3,12.8,29.47,North,7,0.0,0.0,61,0.00,,,0.00,VWS V14.00,2013-01-03 10:34:00,
2013-01-03 04:35:00,24.4,12.9,29.47,North,7,0.0,0.0,61,0.00,,,0.00,VWS V14.00,2013-01-03 10:35:00,
2013-01-03 04:38:00,24.8,13.3,29.47,North,7,0.0,0.0,61,0.00,,,0.00,VWS V14.00,2013-01-03 10:38:00,
2013-01-03 04:39:00,24.8,13.3,29.47,North,7,0.0,0.0,61,0.00,,,0.00,VWS V14.00,2013-01-03 10:39:00,
2013-01-03 04:40:00,24.8,13.3,29.47,North,7,0.0,0.0,61,0.00,,,0.00,VWS V14.00,2013-01-03 10:40:00,
2013-01-03 04:41:00,25.0,13.4,29.47,North,7,0.0,0.0,61,0.00,,,0.00,VWS V14.00,2013-01-03 10:41:00,
2013-01-03 04:44:00,25.2,13.6,29.47,North,7,0.0,0.0,61,0.00,,,0.00,VWS V14.00,2013-01-03 10:44:00,
2013-01-03 04:45:00,25.3,13.8,29.47,North,7,0.0,0.0,61,0.00,,,0.00,VWS V14.00,2013-01-03 10:45:00,
2013-01-03 04:47:00,25.3,14.2,29.50,North,7,0.0,0.0,62,0.00,,,0.00,VWS V14.00,2013-01-03 10:47:00,
2013-01-03 04:49:00,25.7,14.5,29.50,North,7,0.0,0.0,62,0.00,,,0.00,VWS V14.00,2013-01-03 10:49:00,
2013-01-03 04:50:00,25.7,14.9,29.50,North,7,0.0,0.0,63,0.00,,,0.00,VWS V14.00,2013-01-03 10:50:00,
2013-01-03 04:52:00,25.9,15.0,29.50,North,7,0.0,0.0,63,0.00,,,0.00,VWS V14.00,2013-01-03 10:52:00,
2013-01-03 04:54:00,25.9,15.4,29.50,North,7,0.0,0.0,64,0.00,,,0.00,VWS V14.00,2013-01-03 10:54:00,
2013-01-03 04:55:00,26.1,15.6,29.50,North,7,0.0,0.0,64,0.00,,,0.00,VWS V14.00,2013-01-03 10:55:00,
2013-01-03 04:58:00,26.1,15.6,29.50,North,7,0.0,0.0,64,0.00,,,0.00,VWS V14.00,2013-01-03 10:58:00,
2013-01-03 04:59:00,26.1,15.6,29.50,North,7,0.0,0.0,64,0.00,,,0.00,VWS V14.00,2013-01-03 10:59:00,
2013-01-03 05:00:00,26.1,15.6,29.50,North,7,0.0,0.0,64,0.00,,,0.00,VWS V14.00,2013-01-03 11:00:00,
2013-01-03 05:04:00,26.2,15.7,29.47,North,7,0.0,0.0,64,0.00,,,0.00,VWS V14.00,2013-01-03 11:04:00,
2013-01-03 05:05:00,26.2,15.7,29.47,North,7,0.0,0.0,64,0.00,,,0.00,VWS V14.00,2013-01-03 11:05:00,
2013-01-03 05:09:00,26.2,15.7,29.47,North,7,0.0,0.0,64,0.00,,,0.00,VWS V14.00,2013-01-03 11:09:00,
2013-01-03 05:10:00,26.2,15.7,29.47,North,7,0.0,0.0,64,0.00,,,0.00,VWS V14.00,2013-01-03 11:10:00,
2013-01-03 05:11:00,26.2,15.4,29.47,North,7,0.0,0.0,63,0.00,,,0.00,VWS V14.00,2013-01-03 11:11:00,
2013-01-03 05:15:00,26.2,15.4,29.47,North,7,0.0,0.0,63,0.00,,,0.00,VWS V14.00,2013-01-03 11:15:00,
2013-01-03 05:16:00,26.2,15.4,29.50,North,7,0.0,0.0,63,0.00,,,0.00,VWS V14.00,2013-01-03 11:16:00,
2013-01-03 05:17:00,26.4,15.6,29.50,North,7,0.0,0.0,63,0.00,,,0.00,VWS V14.00,2013-01-03 11:17:00,
2013-01-03 05:20:00,26.6,15.7,29.50,North,7,0.0,0.0,63,0.00,,,0.00,VWS V14.00,2013-01-03 11:20:00,
2013-01-03 05:21:00,26.6,15.7,29.50,North,7,0.0,0.0,63,0.00,,,0.00,VWS V14.00,2013-01-03 11:21:00,
2013-01-03 05:22:00,26.6,15.7,29.50,North,7,0.0,0.0,63,0.00,,,0.00,VWS V14.00,2013-01-03 11:22:00,
2013-01-03 05:25:00,26.6,15.7,29.50,North,7,0.0,0.0,63,0.00,,,0.00,VWS V14.00,2013-01-03 11:25:00,
2013-01-03 05:26:00,26.6,15.4,29.50,North,7,0.0,0.0,62,0.00,,,0.00,VWS V14.00,2013-01-03 11:26:00,
2013-01-03 05:27:00,26.6,15.4,29.50,North,7,0.0,0.0,62,0.00,,,0.00,VWS V14.00,2013-01-03 11:27:00,
2013-01-03 05:28:00,26.6,15.4,29.50,North,7,0.0,0.0,62,0.00,,,0.00,VWS V14.00,2013-01-03 11:28:00,
2013-01-03 05:31:00,26.8,15.1,29.50,North,7,0.0,0.0,61,0.00,,,0.00,VWS V14.00,2013-01-03 11:31:00,
2013-01-03 05:32:00,26.8,15.1,29.50,North,7,0.0,0.0,61,0.00,,,0.00,VWS V14.00,2013-01-03 11:32:00,
2013-01-03 05:33:00,26.8,14.8,29.50,North,7,0.0,0.0,60,0.00,,,0.00,VWS V14.00,2013-01-03 11:33:00,
2013-01-03 05:37:00,26.6,15.0,29.50,North,7,0.0,0.0,61,0.00,,,0.00,VWS V14.00,2013-01-03 11:37:00,
2013-01-03 05:38:00,26.6,15.0,29.50,North,7,0.0,0.0,61,0.00,,,0.00,VWS V14.00,2013-01-03 11:38:00,
2013-01-03 05:40:00,26.4,14.8,29.50,North,7,0.0,0.0,61,0.00,,,0.00,VWS V14.00,2013-01-03 11:40:00,
2013-01-03 05:42:00,26.2,14.6,29.50,North,7,0.0,0.0,61,0.00,,,0.00,VWS V14.00,2013-01-03 11:42:00,
2013-01-03 05:43:00,26.1,14.8,29.50,North,7,0.0,0.0,62,0.00,,,0.00,VWS V14.00,2013-01-03 11:43:00,
2013-01-03 05:45:00,25.9,14.7,29.50,North,7,0.0,0.0,62,0.00,,,0.00,VWS V14.00,2013-01-03 11:45:00,
2013-01-03 05:47:00,25.7,14.1,29.50,North,7,0.0,0.0,61,0.00,,,0.00,VWS V14.00,2013-01-03 11:47:00,
2013-01-03 05:48:00,25.5,14.0,29.50,North,7,0.0,0.0,61,0.00,,,0.00,VWS V14.00,2013-01-03 11:48:00,
2013-01-03 05:49:00,25.5,14.0,29.50,North,7,0.0,0.0,61,0.00,,,0.00,VWS V14.00,2013-01-03 11:49:00,
2013-01-03 05:50:00,25.3,13.4,29.50,North,7,0.0,0.0,60,0.00,,,0.00,VWS V14.00,2013-01-03 11:50:00,
2013-01-03 05:52:00,25.3,13.4,29.50,North,7,0.0,0.0,60,0.00,,,0.00,VWS V14.00,2013-01-03 11:52:00,
2013-01-03 05:53:00,25.3,13.4,29.50,North,7,0.0,0.0,60,0.00,,,0.00,VWS V14.00,2013-01-03 11:53:00,
2013-01-03 05:54:00,25.3,13.8,29.50,North,7,0.0,0.0,61,0.00,,,0.00,VWS V14.00,2013-01-03 11:54:00,
2013-01-03 05:56:00,26.1,14.8,29.50,North,7,0.0,0.0,62,0.00,,,0.00,VWS V14.00,2013-01-03 11:56:00,
2013-01-03 05:57:00,25.9,14.3,29.50,North,7,0.0,0.0,61,0.00,,,0.00,VWS V14.00,2013-01-03 11:57:00,
2013-01-03 05:58:00,25.9,14.3,29.50,North,7,0.0,0.0,61,0.00,,,0.00,VWS V14.00,2013-01-03 11:58:00,
2013-01-03 06:00:00,25.7,14.1,29.50,North,7,0.0,0.0,61,0.00,,,0.00,VWS V14.00,2013-01-03 12:00:00,
2013-01-03 06:02:00,25.5,14.0,29.50,North,7,0.0,0.0,61,0.00,,,0.00,VWS V14.00,2013-01-03 12:02:00,
2013-01-03 06:03:00,25.5,14.0,29.50,North,7,0.0,0.0,61,0.00,,,0.00,VWS V14.00,2013-01-03 12:03:00,
2013-01-03 06:05:00,25.5,13.6,29.50,North,7,0.0,0.0,60,0.00,,,0.00,VWS V14.00,2013-01-03 12:05:00,
2013-01-03 06:07:00,25.5,13.6,29.50,North,7,0.0,0.0,60,0.00,,,0.00,VWS V14.00,2013-01-03 12:07:00,
2013-01-03 06:10:00,25.5,14.0,29.50,North,7,0.0,0.0,61,0.00,,,0.00,VWS V14.00,2013-01-03 12:10:00,
2013-01-03 06:12:00,25.7,14.5,29.50,North,7,0.0,0.0,62,0.00,,,0.00,VWS V14.00,2013-01-03 12:12:00,
2013-01-03 06:13:00,25.7,14.5,29.50,North,7,0.0,0.0,62,0.00,,,0.00,VWS V14.00,2013-01-03 12:13:00,
2013-01-03 06:16:00,25.7,14.9,29.53,North,7,0.0,0.0,63,0.00,,,0.00,VWS V14.00,2013-01-03 12:16:00,
2013-01-03 06:17:00,25.9,15.0,29.53,North,7,0.0,0.0,63,0.00,,,0.00,VWS V14.00,2013-01-03 12:17:00,
2013-01-03 06:19:00,26.1,15.6,29.53,North,7,0.0,0.0,64,0.00,,,0.00,VWS V14.00,2013-01-03 12:19:00,
2013-01-03 06:21:00,26.1,15.6,29.53,North,7,0.0,0.0,64,0.00,,,0.00,VWS V14.00,2013-01-03 12:21:00,
2013-01-03 06:22:00,26.2,16.1,29.53,North,7,0.0,0.0,65,0.00,,,0.00,VWS V14.00,2013-01-03 12:22:00,
2013-01-03 06:24:00,26.2,16.4,29.53,North,7,0.0,0.0,66,0.00,,,0.00,VWS V14.00,2013-01-03 12:24:00,
2013-01-03 06:27:00,26.2,16.4,29.53,North,7,0.0,0.0,66,0.00,,,0.00,VWS V14.00,2013-01-03 12:27:00,
2013-01-03 06:28:00,26.2,16.4,29.53,North,7,0.0,0.0,66,0.00,,,0.00,VWS V14.00,2013-01-03 12:28:00,
2013-01-03 06:30:00,26.4,17.0,29.53,North,7,0.0,0.0,67,0.00,,,0.00,VWS V14.00,2013-01-03 12:30:00,
2013-01-03 06:32:00,26.4,17.0,29.59,North,7,0.0,0.0,67,0.00,,,0.00,VWS V14.00,2013-01-03 12:32:00,
2013-01-03 06:33:00,26.6,17.1,29.59,North,7,0.0,0.0,67,0.00,,,0.00,VWS V14.00,2013-01-03 12:33:00,
2013-01-03 06:35:00,26.8,17.3,29.59,North,7,2.7,3.1,67,0.00,,,0.00,VWS V14.00,2013-01-03 12:35:00,
2013-01-03 06:37:00,26.6,17.1,29.59,North,7,2.7,3.1,67,0.00,,,0.00,VWS V14.00,2013-01-03 12:37:00,
2013-01-03 06:38:00,26.6,16.8,29.59,North,11,0.0,3.1,66,0.00,,,0.00,VWS V14.00,2013-01-03 12:38:00,
2013-01-03 06:39:00,26.8,17.0,29.59,NNE,12,0.0,3.1,66,0.00,,,0.00,VWS V14.00,2013-01-03 12:39:00,
2013-01-03 06:41:00,27.1,17.0,29.59,North,7,3.6,3.6,65,0.00,,,0.00,VWS V14.00,2013-01-03 12:41:00,
2013-01-03 06:42:00,27.3,17.1,29.59,North,7,2.2,3.6,65,0.00,,,0.00,VWS V14.00,2013-01-03 12:42:00,
2013-01-03 06:43:00,27.5,17.3,29.59,North,7,0.0,0.0,65,0.00,,,0.00,VWS V14.00,2013-01-03 12:43:00,
2013-01-03 06:45:00,27.7,17.5,29.59,North,7,0.0,0.0,65,0.00,,,0.00,VWS V14.00,2013-01-03 12:45:00,
2013-01-03 06:47:00,27.9,17.3,29.59,North,7,0.0,0.0,64,0.00,,,0.00,VWS V14.00,2013-01-03 12:47:00,
2013-01-03 06:50:00,27.9,17.3,29.59,North,7,0.0,0.0,64,0.00,,,0.00,VWS V14.00,2013-01-03 12:50:00,
2013-01-03 06:52:00,27.9,16.9,29.59,North,7,0.0,0.0,63,0.00,,,0.00,VWS V14.00,2013-01-03 12:52:00,
2013-01-03 06:53:00,27.9,16.5,29.59,North,7,0.0,0.0,62,0.00,,,0.00,VWS V14.00,2013-01-03 12:53:00,
2013-01-03 06:55:00,27.9,16.5,29.59,North,7,0.0,0.0,62,0.00,,,0.00,VWS V14.00,2013-01-03 12:55:00,
2013-01-03 06:57:00,27.9,16.2,29.59,North,7,0.0,0.0,61,0.00,,,0.00,VWS V14.00,2013-01-03 12:57:00,
2013-01-03 06:58:00,27.9,15.8,29.59,North,7,0.0,0.0,60,0.00,,,0.00,VWS V14.00,2013-01-03 12:58:00,
2013-01-03 07:00:00,27.9,15.8,29.59,North,7,0.0,0.0,60,0.00,,,0.00,VWS V14.00,2013-01-03 13:00:00,
2013-01-03 07:02:00,27.9,15.4,29.59,North,7,0.0,0.0,59,0.00,,,0.00,VWS V14.00,2013-01-03 13:02:00,
2013-01-03 07:04:00,27.9,15.4,29.59,North,7,0.0,0.0,59,0.00,,,0.00,VWS V14.00,2013-01-03 13:04:00,
2013-01-03 07:05:00,27.9,15.0,29.59,North,7,0.0,0.0,58,0.00,,,0.00,VWS V14.00,2013-01-03 13:05:00,
2013-01-03 07:08:00,27.9,15.0,29.59,North,7,0.0,0.0,58,0.00,,,0.00,VWS V14.00,2013-01-03 13:08:00,
2013-01-03 07:09:00,27.9,15.0,29.59,North,7,0.0,0.0,58,0.00,,,0.00,VWS V14.00,2013-01-03 13:09:00,
2013-01-03 07:10:00,28.0,15.2,29.59,North,7,0.0,0.0,58,0.00,,,0.00,VWS V14.00,2013-01-03 13:10:00,
2013-01-03 07:12:00,28.0,15.6,29.59,North,7,0.0,0.0,59,0.00,,,0.00,VWS V14.00,2013-01-03 13:12:00,
2013-01-03 07:14:00,28.2,15.8,29.59,North,7,0.0,0.0,59,0.00,,,0.00,VWS V14.00,2013-01-03 13:14:00,
2013-01-03 07:15:00,28.2,15.8,29.59,North,7,0.0,0.0,59,0.00,,,0.00,VWS V14.00,2013-01-03 13:15:00,
2013-01-03 07:17:00,28.4,16.3,29.62,North,7,0.0,0.0,60,0.00,,,0.00,VWS V14.00,2013-01-03 13:17:00,
2013-01-03 07:18:00,28.4,16.3,29.62,North,7,0.0,0.0,60,0.00,,,0.00,VWS V14.00,2013-01-03 13:18:00,
2013-01-03 07:19:00,28.6,16.5,29.62,North,7,0.0,0.0,60,0.00,,,0.00,VWS V14.00,2013-01-03 13:19:00,
2013-01-03 07:21:00,28.6,16.5,29.62,North,7,0.0,0.0,60,0.00,,,0.00,VWS V14.00,2013-01-03 13:21:00,
2013-01-03 07:23:00,28.8,16.6,29.62,North,7,0.0,0.0,60,0.00,,,0.00,VWS V14.00,2013-01-03 13:23:00,
2013-01-03 07:24:00,28.8,16.6,29.62,North,7,0.0,0.0,60,0.00,,,0.00,VWS V14.00,2013-01-03 13:24:00,
2013-01-03 07:26:00,28.8,16.6,29.62,North,7,0.0,0.0,60,0.00,,,0.00,VWS V14.00,2013-01-03 13:26:00,
2013-01-03 07:28:00,28.9,16.8,29.62,North,7,0.0,0.0,60,0.00,,,0.00,VWS V14.00,2013-01-03 13:28:00,
2013-01-03 07:29:00,28.9,16.8,29.62,North,7,0.0,0.0,60,0.00,,,0.00,VWS V14.00,2013-01-03 13:29:00,
2013-01-03 07:31:00,29.1,17.0,29.59,North,7,0.0,0.0,60,0.00,,,0.00,VWS V14.00,2013-01-03 13:31:00,
2013-01-03 07:34:00,29.1,17.4,29.59,North,7,0.0,0.0,61,0.00,,,0.00,VWS V14.00,2013-01-03 13:34:00,
2013-01-03 07:36:00,29.3,17.5,29.59,North,7,0.0,0.0,61,0.00,,,0.00,VWS V14.00,2013-01-03 13:36:00,
2013-01-03 07:37:00,29.5,17.7,29.59,North,7,0.0,0.0,61,0.00,,,0.00,VWS V14.00,2013-01-03 13:37:00,
2013-01-03 07:39:00,29.7,17.9,29.59,North,7,0.0,0.0,61,0.00,,,0.00,VWS V14.00,2013-01-03 13:39:00,
2013-01-03 07:41:00,29.7,17.9,29.59,North,7,0.0,0.0,61,0.00,,,0.00,VWS V14.00,2013-01-03 13:41:00,
2013-01-03 07:43:00,29.8,18.0,29.59,North,7,0.0,0.0,61,0.00,,,0.00,VWS V14.00,2013-01-03 13:43:00,
2013-01-03 07:45:00,30.0,18.2,29.59,North,7,0.0,0.0,61,0.00,,,0.00,VWS V14.00,2013-01-03 13:45:00,
2013-01-03 07:47:00,30.2,18.4,29.62,North,7,0.0,0.0,61,0.00,,,0.00,VWS V14.00,2013-01-03 13:47:00,
2013-01-03 07:49:00,30.2,18.4,29.62,North,7,0.0,0.0,61,0.00,,,0.00,VWS V14.00,2013-01-03 13:49:00,
2013-01-03 07:50:00,30.4,18.6,29.62,North,7,0.0,0.0,61,0.00,,,0.00,VWS V14.00,2013-01-03 13:50:00,
2013-01-03 07:51:00,30.4,18.6,29.62,North,7,0.0,0.0,61,0.00,,,0.00,VWS V14.00,2013-01-03 13:51:00,
2013-01-03 07:52:00,30.4,18.6,29.62,North,7,0.0,0.0,61,0.00,,,0.00,VWS V14.00,2013-01-03 13:52:00,
2013-01-03 07:55:00,30.7,18.9,29.62,North,7,0.0,0.0,61,0.00,,,0.00,VWS V14.00,2013-01-03 13:55:00,
2013-01-03 07:56:00,30.7,18.9,29.62,North,7,0.0,0.0,61,0.00,,,0.00,VWS V14.00,2013-01-03 13:56:00,
2013-01-03 07:58:00,30.9,19.1,29.62,North,7,0.0,0.0,61,0.00,,,0.00,VWS V14.00,2013-01-03 13:58:00,
2013-01-03 08:01:00,31.1,19.2,29.62,North,7,0.0,0.0,61,0.00,,,0.00,VWS V14.00,2013-01-03 14:01:00,
2013-01-03 08:02:00,31.1,19.2,29.62,North,7,0.0,0.0,61,0.00,,,0.00,VWS V14.00,2013-01-03 14:02:00,
2013-01-03 08:04:00,31.1,19.2,29.62,North,7,0.0,0.0,61,0.00,,,0.00,VWS V14.00,2013-01-03 14:04:00,
2013-01-03 08:06:00,31.3,19.8,29.62,North,7,0.0,0.0,62,0.00,,,0.00,VWS V14.00,2013-01-03 14:06:00,
2013-01-03 08:07:00,31.3,19.8,29.62,North,7,0.0,0.0,62,0.00,,,0.00,VWS V14.00,2013-01-03 14:07:00,
2013-01-03 08:08:00,31.3,19.8,29.62,North,7,0.0,0.0,62,0.00,,,0.00,VWS V14.00,2013-01-03 14:08:00,
2013-01-03 08:10:00,31.5,20.0,29.62,North,7,0.0,0.0,62,0.00,,,0.00,VWS V14.00,2013-01-03 14:10:00,
2013-01-03 08:12:00,31.8,20.3,29.62,North,7,0.0,0.0,62,0.00,,,0.00,VWS V14.00,2013-01-03 14:12:00,
2013-01-03 08:13:00,31.8,20.3,29.62,North,7,0.0,0.0,62,0.00,,,0.00,VWS V14.00,2013-01-03 14:13:00,
2013-01-03 08:16:00,32.2,20.6,29.62,North,7,0.0,0.0,62,0.00,,,0.00,VWS V14.00,2013-01-03 14:16:00,
2013-01-03 08:18:00,32.2,20.6,29.62,North,7,0.0,0.0,62,0.00,,,0.00,VWS V14.00,2013-01-03 14:18:00,
2013-01-03 08:19:00,32.4,20.8,29.62,North,7,0.0,0.0,62,0.00,,,0.00,VWS V14.00,2013-01-03 14:19:00,
2013-01-03 08:21:00,32.5,21.0,29.62,North,7,0.0,0.0,62,0.00,,,0.00,VWS V14.00,2013-01-03 14:21:00,
2013-01-03 08:23:00,32.7,21.1,29.62,North,7,0.0,0.0,62,0.00,,,0.00,VWS V14.00,2013-01-03 14:23:00,
2013-01-03 08:24:00,32.7,21.1,29.62,North,7,0.0,0.0,62,0.00,,,0.00,VWS V14.00,2013-01-03 14:24:00,
2013-01-03 08:28:00,33.3,21.7,29.62,North,7,0.0,0.0,62,0.00,,,0.00,VWS V14.00,2013-01-03 14:28:00,
2013-01-03 08:29:00,33.4,21.8,29.62,North,7,0.0,0.0,62,0.00,,,0.00,VWS V14.00,2013-01-03 14:29:00,
2013-01-03 08:30:00,33.6,22.0,29.62,North,7,0.0,0.0,62,0.00,,,0.00,VWS V14.00,2013-01-03 14:30:00,
2013-01-03 08:34:00,33.6,22.4,29.59,North,7,0.0,0.0,63,0.00,,,0.00,VWS V14.00,2013-01-03 14:34:00,
2013-01-03 08:35:00,33.8,22.5,29.59,North,7,0.0,0.0,63,0.00,,,0.00,VWS V14.00,2013-01-03 14:35:00,
2013-01-03 08:36:00,33.8,22.5,29.59,North,7,0.0,0.0,63,0.00,,,0.00,VWS V14.00,2013-01-03 14:36:00,
2013-01-03 08:39:00,33.8,22.5,29.59,North,7,0.0,0.0,63,0.00,,,0.00,VWS V14.00,2013-01-03 14:39:00,
2013-01-03 08:40:00,34.0,22.4,29.59,North,7,0.0,2.7,62,0.00,,,0.00,VWS V14.00,2013-01-03 14:40:00,
2013-01-03 08:41:00,34.0,22.4,29.59,North,7,0.0,2.7,62,0.00,,,0.00,VWS V14.00,2013-01-03 14:41:00,
2013-01-03 08:45:00,34.7,21.9,29.59,North,7,0.0,0.0,59,0.00,,,0.00,VWS V14.00,2013-01-03 14:45:00,
2013-01-03 08:46:00,34.7,21.5,29.59,North,7,0.0,0.0,58,0.00,,,0.00,VWS V14.00,2013-01-03 14:46:00,
2013-01-03 08:47:00,34.7,21.5,29.59,North,7,0.0,0.0,58,0.00,,,0.00,VWS V14.00,2013-01-03 14:47:00,
2013-01-03 08:51:00,35.2,18.9,29.59,North,7,0.0,0.0,51,0.00,,,0.00,VWS V14.00,2013-01-03 14:51:00,
2013-01-03 08:52:00,35.4,18.2,29.59,North,7,0.0,0.0,49,0.00,,,0.00,VWS V14.00,2013-01-03 14:52:00,
2013-01-03 08:56:00,36.0,15.6,29.59,North,7,0.0,0.0,43,0.00,,,0.00,VWS V14.00,2013-01-03 14:56:00,
2013-01-03 08:57:00,36.1,14.7,29.59,North,7,0.0,0.0,41,0.00,,,0.00,VWS V14.00,2013-01-03 14:57:00,
2013-01-03 08:58:00,36.1,14.7,29.59,North,7,0.0,0.0,41,0.00,,,0.00,VWS V14.00,2013-01-03 14:58:00,
2013-01-03 09:02:00,36.9,13.6,29.59,North,7,0.0,0.0,38,0.00,,,0.00,VWS V14.00,2013-01-03 15:02:00,
2013-01-03 09:03:00,37.0,13.2,29.59,North,7,0.0,0.0,37,0.00,,,0.00,VWS V14.00,2013-01-03 15:03:00,
2013-01-03 09:06:00,37.4,12.9,29.59,North,7,0.0,0.0,36,0.00,,,0.00,VWS V14.00,2013-01-03 15:06:00,
2013-01-03 09:07:00,37.6,13.1,29.59,North,7,0.0,0.0,36,0.00,,,0.00,VWS V14.00,2013-01-03 15:07:00,
2013-01-03 09:08:00,37.8,12.6,29.59,North,7,0.0,0.0,35,0.00,,,0.00,VWS V14.00,2013-01-03 15:08:00,
2013-01-03 09:11:00,38.1,12.9,29.59,North,7,0.0,0.0,35,0.00,,,0.00,VWS V14.00,2013-01-03 15:11:00,
2013-01-03 09:12:00,38.3,13.1,29.59,North,7,0.0,0.0,35,0.00,,,0.00,VWS V14.00,2013-01-03 15:12:00,
2013-01-03 09:13:00,38.7,13.4,29.59,North,7,0.0,0.0,35,0.00,,,0.00,VWS V14.00,2013-01-03 15:13:00,
2013-01-03 09:17:00,39.2,12.5,29.59,North,7,0.0,0.0,33,0.00,,,0.00,VWS V14.00,2013-01-03 15:17:00,
2013-01-03 09:19:00,39.6,9.9,29.59,North,7,0.0,0.0,29,0.00,,,0.00,VWS V14.00,2013-01-03 15:19:00,
2013-01-03 09:22:00,39.7,5.9,29.59,North,7,0.0,2.7,24,0.00,,,0.00,VWS V14.00,2013-01-03 15:22:00,
2013-01-03 09:24:00,40.5,6.5,29.59,North,7,0.0,2.7,24,0.00,,,0.00,VWS V14.00,2013-01-03 15:24:00,
2013-01-03 09:25:00,40.6,7.6,29.59,North,7,0.0,2.7,25,0.00,,,0.00,VWS V14.00,2013-01-03 15:25:00,
2013-01-03 09:27:00,40.6,6.7,29.59,North,7,0.0,2.7,24,0.00,,,0.00,VWS V14.00,2013-01-03 15:27:00,
2013-01-03 09:28:00,40.8,6.8,29.59,North,7,0.0,0.0,24,0.00,,,0.00,VWS V14.00,2013-01-03 15:28:00,
2013-01-03 09:29:00,40.6,6.7,29.59,North,7,0.0,0.0,24,0.00,,,0.00,VWS V14.00,2013-01-03 15:29:00,
2013-01-03 09:30:00,40.6,6.7,29.59,North,7,0.0,0.0,24,0.00,,,0.00,VWS V14.00,2013-01-03 15:30:00,
2013-01-03 09:33:00,40.3,6.4,29.59,North,7,0.0,0.0,24,0.00,,,0.00,VWS V14.00,2013-01-03 15:33:00,
2013-01-03 09:34:00,40.5,6.5,29.59,North,7,0.0,0.0,24,0.00,,,0.00,VWS V14.00,2013-01-03 15:34:00,
2013-01-03 09:35:00,40.5,6.5,29.59,North,7,0.0,0.0,24,0.00,,,0.00,VWS V14.00,2013-01-03 15:35:00,
2013-01-03 09:39:00,41.2,7.1,29.59,North,7,0.0,3.6,24,0.00,,,0.00,VWS V14.00,2013-01-03 15:39:00,
2013-01-03 09:40:00,41.0,7.0,29.59,NNE,18,2.7,4.9,24,0.00,,,0.00,VWS V14.00,2013-01-03 15:40:00,
2013-01-03 09:44:00,41.0,7.0,29.59,NNE,31,2.7,2.7,24,0.00,,,0.00,VWS V14.00,2013-01-03 15:44:00,
2013-01-03 09:45:00,41.2,7.1,29.59,NNE,31,0.0,2.7,24,0.00,,,0.00,VWS V14.00,2013-01-03 15:45:00,
2013-01-03 09:50:00,42.1,7.9,29.59,NNE,12,3.6,5.8,24,0.00,,,0.00,VWS V14.00,2013-01-03 15:50:00,
2013-01-03 09:51:00,42.6,8.4,29.59,NNE,26,2.7,5.8,24,0.00,,,0.00,VWS V14.00,2013-01-03 15:51:00,
2013-01-03 09:55:00,44.2,8.8,29.59,NE,35,2.7,5.8,23,0.00,,,0.00,VWS V14.00,2013-01-03 15:55:00,
2013-01-03 09:56:00,44.6,9.1,29.59,NNE,32,0.0,5.8,23,0.00,,,0.00,VWS V14.00,2013-01-03 15:56:00,
2013-01-03 09:58:00,44.1,8.6,29.59,NNE,21,7.6,7.6,23,0.00,,,0.00,VWS V14.00,2013-01-03 15:58:00,
2013-01-03 10:00:00,45.3,9.7,29.59,NNE,16,2.7,7.6,23,0.00,,,0.00,VWS V14.00,2013-01-03 16:00:00,
2013-01-03 10:01:00,45.3,9.7,29.59,NNE,13,2.7,7.6,23,0.00,,,0.00,VWS V14.00,2013-01-03 16:01:00,
2013-01-03 10:03:00,45.9,10.2,29.59,NNE,29,5.8,7.6,23,0.00,,,0.00,VWS V14.00,2013-01-03 16:03:00,
2013-01-03 10:05:00,45.5,9.9,29.59,ENE,59,5.4,7.6,23,0.00,,,0.00,VWS V14.00,2013-01-03 16:05:00,
2013-01-03 10:06:00,45.5,9.9,29.59,NE,42,4.0,7.6,23,0.00,,,0.00,VWS V14.00,2013-01-03 16:06:00,
2013-01-03 10:09:00,45.7,10.0,29.59,NE,38,5.4,10.5,23,0.00,,,0.00,VWS V14.00,2013-01-03 16:09:00,
2013-01-03 10:10:00,48.4,11.3,29.59,NNE,20,5.8,10.5,22,0.00,,,0.00,VWS V14.00,2013-01-03 16:10:00,
2013-01-03 10:11:00,48.4,11.3,29.59,NNE,20,5.8,10.5,22,0.00,,,0.00,VWS V14.00,2013-01-03 16:11:00,
2013-01-03 10:14:00,50.2,11.8,29.59,NE,39,4.0,9.2,21,0.00,,,0.00,VWS V14.00,2013-01-03 16:14:00,
2013-01-03 10:16:00,48.0,11.0,29.59,NNE,32,5.8,9.2,22,0.00,,,0.00,VWS V14.00,2013-01-03 16:16:00,
2013-01-03 10:17:00,48.4,11.3,29.59,NE,50,5.4,9.2,22,0.00,,,0.00,VWS V14.00,2013-01-03 16:17:00,
2013-01-03 10:19:00,47.5,10.6,29.59,NE,51,4.0,9.2,22,0.00,,,0.00,VWS V14.00,2013-01-03 16:19:00,
2013-01-03 10:22:00,46.8,9.9,29.59,NE,37,4.0,9.2,22,0.00,,,0.00,VWS V14.00,2013-01-03 16:22:00,
2013-01-03 10:25:00,46.0,10.3,29.59,NE,55,5.4,10.5,23,0.00,,,0.00,VWS V14.00,2013-01-03 16:25:00,
2013-01-03 10:27:00,45.9,10.2,29.59,NE,39,3.1,10.5,23,0.00,,,0.00,VWS V14.00,2013-01-03 16:27:00,
2013-01-03 10:28:00,46.0,10.3,29.59,NE,54,6.7,10.5,23,0.00,,,0.00,VWS V14.00,2013-01-03 16:28:00,
2013-01-03 10:31:00,45.5,9.9,29.59,NNE,21,5.8,8.3,23,0.00,,,0.00,VWS V14.00,2013-01-03 16:31:00,
2013-01-03 10:33:00,45.1,9.6,29.59,NE,43,6.3,10.5,23,0.00,,,0.00,VWS V14.00,2013-01-03 16:33:00,
2013-01-03 10:34:00,45.1,9.6,29.59,ENE,69,3.6,10.5,23,0.00,,,0.00,VWS V14.00,2013-01-03 16:34:00,
2013-01-03 10:36:00,45.3,9.7,29.59,North,11,10.1,10.5,23,0.00,,,0.00,VWS V14.00,2013-01-03 16:36:00,
2013-01-03 10:38:00,45.3,9.7,29.59,NNE,24,8.3,10.5,23,0.00,,,0.00,VWS V14.00,2013-01-03 16:38:00,
2013-01-03 10:39:00,45.7,10.0,29.59,NNE,27,3.1,10.5,23,0.00,,,0.00,VWS V14.00,2013-01-03 16:39:00,
2013-01-03 10:41:00,45.3,9.7,29.59,NNE,32,8.3,10.5,23,0.00,,,0.00,VWS V14.00,2013-01-03 16:41:00,
2013-01-03 10:43:00,45.5,9.9,29.59,NE,38,5.4,5.4,23,0.00,,,0.00,VWS V14.00,2013-01-03 16:43:00,
2013-01-03 10:44:00,45.5,9.9,29.59,NNE,26,3.6,5.4,23,0.00,,,0.00,VWS V14.00,2013-01-03 16:44:00,
2013-01-03 10:45:00,45.9,10.2,29.59,NNE,30,3.1,5.4,23,0.00,,,0.00,VWS V14.00,2013-01-03 16:45:00,
2013-01-03 10:47:00,45.5,9.9,29.59,NNE,29,4.9,8.1,23,0.00,,,0.00,VWS V14.00,2013-01-03 16:47:00,
2013-01-03 10:49:00,45.3,9.7,29.59,NE,51,4.0,8.1,23,0.00,,,0.00,VWS V14.00,2013-01-03 16:49:00,
2013-01-03 10:50:00,45.1,9.6,29.59,NE,48,6.3,8.1,23,0.00,,,0.00,VWS V14.00,2013-01-03 16:50:00,
2013-01-03 10:52:00,45.5,9.9,29.59,NNE,21,7.6,8.1,23,0.00,,,0.00,VWS V14.00,2013-01-03 16:52:00,
2013-01-03 10:54:00,45.3,9.7,29.59,NNW,344,3.6,8.1,23,0.00,,,0.00,VWS V14.00,2013-01-03 16:54:00,
2013-01-03 10:55:00,45.5,9.9,29.59,NE,56,2.7,8.1,23,0.00,,,0.00,VWS V14.00,2013-01-03 16:55:00,
2013-01-03 10:58:00,45.5,9.9,29.59,NNE,13,4.0,8.3,23,0.00,,,0.00,VWS V14.00,2013-01-03 16:58:00,
2013-01-03 11:00:00,45.5,9.9,29.59,NNE,15,6.7,6.7,23,0.00,,,0.00,VWS V14.00,2013-01-03 17:00:00,
2013-01-03 11:02:00,45.1,9.6,29.59,NNE,20,7.6,8.1,23,0.00,,,0.00,VWS V14.00,2013-01-03 17:02:00,
2013-01-03 11:03:00,45.1,9.6,29.59,NNE,15,8.3,8.3,23,0.00,,,0.00,VWS V14.00,2013-01-03 17:03:00,
2013-01-03 11:05:00,45.0,9.4,29.59,NNE,24,5.8,8.3,23,0.00,,,0.00,VWS V14.00,2013-01-03 17:05:00,
2013-01-03 11:06:00,45.0,9.4,29.59,NNE,23,4.9,8.3,23,0.00,,,0.00,VWS V14.00,2013-01-03 17:06:00,
2013-01-03 11:07:00,45.0,9.4,29.59,NNE,18,5.8,8.3,23,0.00,,,0.00,VWS V14.00,2013-01-03 17:07:00,
2013-01-03 11:08:00,45.1,9.6,29.59,NE,45,5.4,8.3,23,0.00,,,0.00,VWS V14.00,2013-01-03 17:08:00,
2013-01-03 11:10:00,45.1,9.6,29.59,NNE,32,4.0,8.3,23,0.00,,,0.00,VWS V14.00,2013-01-03 17:10:00,
2013-01-03 11:11:00,45.1,9.6,29.59,NNE,29,3.6,8.3,23,0.00,,,0.00,VWS V14.00,2013-01-03 17:11:00,
2013-01-03 11:14:00,45.1,9.6,29.59,NE,50,0.0,3.1,23,0.00,,,0.00,VWS V14.00,2013-01-03 17:14:00,
2013-01-03 11:15:00,45.5,9.9,29.59,NNE,16,5.4,5.8,23,0.00,,,0.00,VWS V14.00,2013-01-03 17:15:00,
2013-01-03 11:16:00,45.3,9.7,29.59,NNE,23,5.8,7.6,23,0.00,,,0.00,VWS V14.00,2013-01-03 17:16:00,
2013-01-03 11:17:00,45.1,9.6,29.59,NNE,20,6.3,7.6,23,0.00,,,0.00,VWS V14.00,2013-01-03 17:17:00,
2013-01-03 11:19:00,45.5,9.9,29.59,NNW,338,2.7,7.6,23,0.00,,,0.00,VWS V14.00,2013-01-03 17:19:00,
2013-01-03 11:21:00,45.7,10.0,29.59,North,7,3.1,7.6,23,0.00,,,0.00,VWS V14.00,2013-01-03 17:21:00,
2013-01-03 11:22:00,45.7,10.0,29.59,NNE,16,3.1,7.6,23,0.00,,,0.00,VWS V14.00,2013-01-03 17:22:00,
2013-01-03 11:24:00,46.0,10.3,29.59,NNE,14,4.9,7.6,23,0.00,,,0.00,VWS V14.00,2013-01-03 17:24:00,
2013-01-03 11:26:00,45.9,10.2,29.59,NNE,25,5.8,7.6,23,0.00,,,0.00,VWS V14.00,2013-01-03 17:26:00,
2013-01-03 11:27:00,46.2,10.5,29.59,North,353,2.7,7.6,23,0.00,,,0.00,VWS V14.00,2013-01-03 17:27:00,
2013-01-03 11:31:00,46.6,9.8,29.59,NNW,344,5.4,6.3,22,0.00,,,0.00,VWS V14.00,2013-01-03 17:31:00,
2013-01-03 11:34:00,46.8,9.9,29.59,North,353,6.7,6.7,22,0.00,,,0.00,VWS V14.00,2013-01-03 17:34:00,
2013-01-03 11:36:00,46.9,10.1,29.59,WNW,292,3.1,6.7,22,0.00,,,0.00,VWS V14.00,2013-01-03 17:36:00,
2013-01-03 11:37:00,46.9,10.1,29.59,NNW,341,2.2,6.7,22,0.00,,,0.00,VWS V14.00,2013-01-03 17:37:00,
2013-01-03 11:41:00,46.8,9.9,29.59,North,353,4.0,6.7,22,0.00,,,0.00,VWS V14.00,2013-01-03 17:41:00,
2013-01-03 11:42:00,46.8,9.9,29.59,North,353,0.0,6.7,22,0.00,,,0.00,VWS V14.00,2013-01-03 17:42:00,
2013-01-03 11:43:00,46.4,9.6,29.59,North,353,3.1,6.7,22,0.00,,,0.00,VWS V14.00,2013-01-03 17:43:00,
2013-01-03 11:47:00,45.7,10.0,29.56,NNE,32,3.1,5.8,23,0.00,,,0.00,VWS V14.00,2013-01-03 17:47:00,
2013-01-03 11:48:00,45.5,9.9,29.56,NNE,22,4.0,5.8,23,0.00,,,0.00,VWS V14.00,2013-01-03 17:48:00,
2013-01-03 11:52:00,45.3,9.7,29.56,North,357,3.1,5.8,23,0.00,,,0.00,VWS V14.00,2013-01-03 17:52:00,
2013-01-03 11:53:00,45.5,9.9,29.56,North,357,2.2,5.8,23,0.00,,,0.00,VWS V14.00,2013-01-03 17:53:00,
2013-01-03 11:58:00,45.9,10.2,29.56,North,4,3.1,5.8,23,0.00,,,0.00,VWS V14.00,2013-01-03 17:58:00,
2013-01-03 11:59:00,46.0,10.3,29.56,North,9,2.2,3.1,23,0.00,,,0.00,VWS V14.00,2013-01-03 17:59:00,
2013-01-03 12:03:00,45.9,10.2,29.59,NNE,17,5.4,6.3,23,0.00,,,0.00,VWS V14.00,2013-01-03 18:03:00,
2013-01-03 12:04:00,46.0,10.3,29.59,NNE,22,4.0,6.3,23,0.00,,,0.00,VWS V14.00,2013-01-03 18:04:00,
2013-01-03 12:05:00,45.9,10.2,29.59,NNE,23,4.0,6.3,23,0.00,,,0.00,VWS V14.00,2013-01-03 18:05:00,
2013-01-03 12:08:00,46.6,9.8,29.59,NNE,23,0.0,6.3,22,0.00,,,0.00,VWS V14.00,2013-01-03 18:08:00,
2013-01-03 12:09:00,46.8,9.9,29.59,NNE,23,0.0,6.3,22,0.00,,,0.00,VWS V14.00,2013-01-03 18:09:00,
2013-01-03 12:10:00,47.3,10.4,29.59,NNE,23,0.0,6.3,22,0.00,,,0.00,VWS V14.00,2013-01-03 18:10:00,
2013-01-03 12:13:00,47.8,10.9,29.59,NNW,339,3.6,3.6,22,0.00,,,0.00,VWS V14.00,2013-01-03 18:13:00,
2013-01-03 12:14:00,47.8,10.9,29.59,North,11,3.6,3.6,22,0.00,,,0.00,VWS V14.00,2013-01-03 18:14:00,
2013-01-03 12:16:00,47.3,10.4,29.59,North,357,4.0,8.3,22,0.00,,,0.00,VWS V14.00,2013-01-03 18:16:00,
2013-01-03 12:19:00,46.9,10.1,29.59,North,2,4.0,8.3,22,0.00,,,0.00,VWS V14.00,2013-01-03 18:19:00,
2013-01-03 12:20:00,47.1,10.2,29.59,NNW,334,4.0,8.3,22,0.00,,,0.00,VWS V14.00,2013-01-03 18:20:00,
2013-01-03 12:21:00,47.3,10.4,29.59,NNW,334,2.2,8.3,22,0.00,,,0.00,VWS V14.00,2013-01-03 18:21:00,
2013-01-03 12:23:00,47.5,10.6,29.59,NNW,327,8.1,8.3,22,0.00,,,0.00,VWS V14.00,2013-01-03 18:23:00,
2013-01-03 12:24:00,47.5,10.6,29.59,NNW,343,5.8,8.3,22,0.00,,,0.00,VWS V14.00,2013-01-03 18:24:00,
2013-01-03 12:26:00,47.5,10.6,29.59,NNE,15,6.3,8.3,22,0.00,,,0.00,VWS V14.00,2013-01-03 18:26:00,
2013-01-03 12:28:00,47.7,10.7,29.59,NNW,337,5.8,8.3,22,0.00,,,0.00,VWS V14.00,2013-01-03 18:28:00,
2013-01-03 12:29:00,47.8,10.9,29.59,North,357,5.8,5.8,22,0.00,,,0.00,VWS V14.00,2013-01-03 18:29:00,
2013-01-03 12:31:00,48.2,11.1,29.56,NNW,344,2.7,5.8,22,0.00,,,0.00,VWS V14.00,2013-01-03 18:31:00,
2013-01-03 12:33:00,48.2,11.1,29.56,NW,323,4.9,6.3,22,0.00,,,0.00,VWS V14.00,2013-01-03 18:33:00,
2013-01-03 12:34:00,48.6,11.5,29.56,NW,326,2.7,6.3,22,0.00,,,0.00,VWS V14.00,2013-01-03 18:34:00,
2013-01-03 12:37:00,48.2,11.1,29.56,North,353,4.0,6.3,22,0.00,,,0.00,VWS V14.00,2013-01-03 18:37:00,
2013-01-03 12:39:00,48.6,11.5,29.56,NW,324,6.3,7.6,22,0.00,,,0.00,VWS V14.00,2013-01-03 18:39:00,
2013-01-03 12:43:00,48.2,11.1,29.56,NW,316,5.4,7.6,22,0.00,,,0.00,VWS V14.00,2013-01-03 18:43:00,
2013-01-03 12:44:00,48.0,11.0,29.56,North,353,4.0,6.3,22,0.00,,,0.00,VWS V14.00,2013-01-03 18:44:00,
2013-01-03 12:45:00,48.0,11.0,29.56,North,353,3.1,6.3,22,0.00,,,0.00,VWS V14.00,2013-01-03 18:45:00,
2013-01-03 12:48:00,47.7,10.7,29.56,NW,307,4.9,8.1,22,0.00,,,0.00,VWS V14.00,2013-01-03 18:48:00,
2013-01-03 12:49:00,47.3,10.4,29.56,NW,319,5.4,8.1,22,0.00,,,0.00,VWS V14.00,2013-01-03 18:49:00,
2013-01-03 12:50:00,47.3,10.4,29.56,NNW,328,4.0,8.1,22,0.00,,,0.00,VWS V14.00,2013-01-03 18:50:00,
2013-01-03 12:53:00,48.0,11.0,29.56,North,357,4.0,8.1,22,0.00,,,0.00,VWS V14.00,2013-01-03 18:53:00,
2013-01-03 12:54:00,48.2,11.1,29.56,NNW,345,3.6,8.1,22,0.00,,,0.00,VWS V14.00,2013-01-03 18:54:00,
2013-01-03 12:55:00,48.2,11.1,29.56,NNE,32,4.0,8.1,22,0.00,,,0.00,VWS V14.00,2013-01-03 18:55:00,
2013-01-03 12:58:00,47.3,10.4,29.56,NW,308,5.4,5.8,22,0.00,,,0.00,VWS V14.00,2013-01-03 18:58:00,
2013-01-03 12:59:00,47.3,10.4,29.56,WNW,293,6.3,7.6,22,0.00,,,0.00,VWS V14.00,2013-01-03 18:59:00,
2013-01-03 13:00:00,46.8,9.9,29.56,WNW,297,7.6,8.1,22,0.00,,,0.00,VWS V14.00,2013-01-03 19:00:00,
2013-01-03 13:01:00,46.4,9.6,29.59,NW,311,8.1,8.7,22,0.00,,,0.00,VWS V14.00,2013-01-03 19:01:00,
2013-01-03 13:03:00,46.4,9.6,29.59,NE,34,6.3,10.5,22,0.00,,,0.00,VWS V14.00,2013-01-03 19:03:00,
2013-01-03 13:04:00,46.2,10.5,29.59,North,353,4.0,10.5,23,0.00,,,0.00,VWS V14.00,2013-01-03 19:04:00,
2013-01-03 13:06:00,46.2,10.5,29.59,NNW,348,7.6,10.5,23,0.00,,,0.00,VWS V14.00,2013-01-03 19:06:00,
2013-01-03 13:08:00,45.9,10.2,29.59,NW,305,6.3,10.5,23,0.00,,,0.00,VWS V14.00,2013-01-03 19:08:00,
2013-01-03 13:09:00,45.9,10.2,29.59,NW,305,6.3,10.5,23,0.00,,,0.00,VWS V14.00,2013-01-03 19:09:00,
2013-01-03 13:10:00,45.7,10.0,29.59,North,3,3.6,10.5,23,0.00,,,0.00,VWS V14.00,2013-01-03 19:10:00,
2013-01-03 13:12:00,45.3,9.7,29.59,North,9,2.2,11.0,23,0.00,,,0.00,VWS V14.00,2013-01-03 19:12:00,
2013-01-03 13:14:00,45.3,9.7,29.59,NNW,337,3.6,5.8,23,0.00,,,0.00,VWS V14.00,2013-01-03 19:14:00,
2013-01-03 13:15:00,45.1,9.6,29.59,NNE,12,6.3,7.6,23,0.00,,,0.00,VWS V14.00,2013-01-03 19:15:00,
2013-01-03 13:19:00,45.0,9.4,29.62,NW,319,3.6,8.7,23,0.00,,,0.00,VWS V14.00,2013-01-03 19:19:00,
2013-01-03 13:51:00,45.0,9.4,29.62,NNE,14,5.4,10.1,23,0.00,,,0.00,VWS V14.00,2013-01-03 19:51:00,
2013-01-03 13:53:00,45.1,9.6,29.62,NNE,28,2.7,10.1,23,0.00,,,0.00,VWS V14.00,2013-01-03 19:53:00,
2013-01-03 13:54:00,45.1,9.6,29.62,NNE,27,2.7,10.1,23,0.00,,,0.00,VWS V14.00,2013-01-03 19:54:00,
2013-01-03 13:55:00,45.3,9.7,29.62,NNE,23,3.6,10.1,23,0.00,,,0.00,VWS V14.00,2013-01-03 19:55:00,
2013-01-03 13:56:00,45.1,9.6,29.62,NNE,20,5.4,10.1,23,0.00,,,0.00,VWS V14.00,2013-01-03 19:56:00,
2013-01-03 13:58:00,45.3,9.7,29.62,North,9,2.7,10.1,23,0.00,,,0.00,VWS V14.00,2013-01-03 19:58:00,
2013-01-03 14:00:00,45.3,9.7,29.62,NNE,24,3.6,5.8,23,0.00,,,0.00,VWS V14.00,2013-01-03 20:00:00,
2013-01-03 14:01:00,45.3,9.7,29.65,NNE,15,6.3,6.3,23,0.00,,,0.00,VWS V14.00,2013-01-03 20:01:00,
2013-01-03 14:02:00,45.3,9.7,29.65,North,8,5.4,6.3,23,0.00,,,0.00,VWS V14.00,2013-01-03 20:02:00,
2013-01-03 14:03:00,45.3,9.7,29.65,NNE,29,3.6,6.3,23,0.00,,,0.00,VWS V14.00,2013-01-03 20:03:00,
2013-01-03 14:05:00,45.1,9.6,29.65,NNE,17,4.0,6.3,23,0.00,,,0.00,VWS V14.00,2013-01-03 20:05:00,
2013-01-03 14:08:00,45.0,9.4,29.65,NNE,16,5.8,9.6,23,0.00,,,0.00,VWS V14.00,2013-01-03 20:08:00,
2013-01-03 14:09:00,45.1,9.6,29.65,NE,47,4.0,9.6,23,0.00,,,0.00,VWS V14.00,2013-01-03 20:09:00,
2013-01-03 14:11:00,45.1,9.6,29.65,NE,45,0.0,9.6,23,0.00,,,0.00,VWS V14.00,2013-01-03 20:11:00,
2013-01-03 14:13:00,45.1,9.6,29.65,NNE,21,5.8,9.6,23,0.00,,,0.00,VWS V14.00,2013-01-03 20:13:00,
2013-01-03 14:15:00,45.1,9.6,29.65,NE,36,2.2,5.8,23,0.00,,,0.00,VWS V14.00,2013-01-03 20:15:00,
2013-01-03 14:18:00,45.1,9.6,29.65,NE,35,3.1,6.3,23,0.00,,,0.00,VWS V14.00,2013-01-03 20:18:00,
2013-01-03 14:19:00,45.1,9.6,29.65,NNE,14,5.8,6.3,23,0.00,,,0.00,VWS V14.00,2013-01-03 20:19:00,
2013-01-03 14:20:00,45.1,9.6,29.65,NNE,17,5.8,8.3,23,0.00,,,0.00,VWS V14.00,2013-01-03 20:20:00,
2013-01-03 14:23:00,45.3,9.7,29.65,NNE,29,3.6,8.3,23,0.00,,,0.00,VWS V14.00,2013-01-03 20:23:00,
2013-01-03 14:25:00,45.3,9.7,29.65,NNE,31,6.7,8.3,23,0.00,,,0.00,VWS V14.00,2013-01-03 20:25:00,
2013-01-03 14:26:00,45.3,9.7,29.65,NNE,13,3.6,8.3,23,0.00,,,0.00,VWS V14.00,2013-01-03 20:26:00,
2013-01-03 14:27:00,45.5,9.9,29.65,NNE,29,3.1,8.3,23,0.00,,,0.00,VWS V14.00,2013-01-03 20:27:00,
2013-01-03 14:29:00,45.3,9.7,29.65,North,8,7.6,7.6,23,0.00,,,0.00,VWS V14.00,2013-01-03 20:29:00,
2013-01-03 14:30:00,45.5,9.9,29.65,NNE,21,3.1,7.6,23,0.00,,,0.00,VWS V14.00,2013-01-03 20:30:00,
2013-01-03 14:31:00,45.5,9.9,29.65,NNE,16,5.4,7.6,23,0.00,,,0.00,VWS V14.00,2013-01-03 20:31:00,
2013-01-03 14:32:00,45.5,9.9,29.65,NNE,31,5.8,7.6,23,0.00,,,0.00,VWS V14.00,2013-01-03 20:32:00,
2013-01-03 14:34:00,45.3,9.7,29.65,NNE,15,4.0,8.1,23,0.00,,,0.00,VWS V14.00,2013-01-03 20:34:00,
2013-01-03 14:36:00,45.7,10.0,29.65,North,353,4.0,8.1,23,0.00,,,0.00,VWS V14.00,2013-01-03 20:36:00,
2013-01-03 14:37:00,45.9,10.2,29.65,NNE,12,4.9,8.1,23,0.00,,,0.00,VWS V14.00,2013-01-03 20:37:00,
2013-01-03 14:39:00,46.0,10.3,29.65,NE,35,2.7,8.1,23,0.00,,,0.00,VWS V14.00,2013-01-03 20:39:00,
2013-01-03 14:41:00,46.0,10.3,29.65,NE,52,5.4,8.1,23,0.00,,,0.00,VWS V14.00,2013-01-03 20:41:00,
2013-01-03 14:42:00,46.2,10.5,29.65,NE,52,2.7,8.1,23,0.00,,,0.00,VWS V14.00,2013-01-03 20:42:00,
2013-01-03 14:43:00,46.2,10.5,29.65,North,2,5.8,8.1,23,0.00,,,0.00,VWS V14.00,2013-01-03 20:43:00,
2013-01-03 14:44:00,46.2,10.5,29.65,ENE,60,4.0,5.8,23,0.00,,,0.00,VWS V14.00,2013-01-03 20:44:00,
2013-01-03 14:47:00,46.2,10.5,29.65,NE,43,4.0,5.8,23,0.00,,,0.00,VWS V14.00,2013-01-03 20:47:00,
2013-01-03 14:48:00,46.0,10.3,29.65,North,0,7.6,7.6,23,0.00,,,0.00,VWS V14.00,2013-01-03 20:48:00,
2013-01-03 14:50:00,45.9,10.2,29.65,NNE,31,7.6,7.6,23,0.00,,,0.00,VWS V14.00,2013-01-03 20:50:00,
2013-01-03 14:52:00,45.5,9.9,29.65,NE,46,5.8,7.6,23,0.00,,,0.00,VWS V14.00,2013-01-03 20:52:00,
2013-01-03 14:54:00,45.3,9.7,29.65,NNE,14,4.9,8.1,23,0.00,,,0.00,VWS V14.00,2013-01-03 20:54:00,
2013-01-03 14:55:00,45.3,9.7,29.65,NNE,31,4.9,8.1,23,0.00,,,0.00,VWS V14.00,2013-01-03 20:55:00,
2013-01-03 14:58:00,45.5,9.9,29.65,North,353,3.1,8.1,23,0.00,,,0.00,VWS V14.00,2013-01-03 20:58:00,
2013-01-03 14:59:00,45.5,9.9,29.65,NNE,30,3.6,4.0,23,0.00,,,0.00,VWS V14.00,2013-01-03 20:59:00,
2013-01-03 15:00:00,45.5,9.9,29.65,NE,45,4.0,6.3,23,0.00,,,0.00,VWS V14.00,2013-01-03 21:00:00,
2013-01-03 15:01:00,45.5,9.9,29.65,NE,45,4.0,6.3,23,0.00,,,0.00,VWS V14.00,2013-01-03 21:01:00,
2013-01-03 15:03:00,45.5,9.9,29.65,NE,43,4.9,8.7,23,0.00,,,0.00,VWS V14.00,2013-01-03 21:03:00,
2013-01-03 15:04:00,45.5,9.9,29.65,NNE,20,6.3,8.7,23,0.00,,,0.00,VWS V14.00,2013-01-03 21:04:00,
2013-01-03 15:06:00,45.5,9.9,29.65,North,11,6.3,8.7,23,0.00,,,0.00,VWS V14.00,2013-01-03 21:06:00,
2013-01-03 15:07:00,45.5,9.9,29.65,NE,34,3.6,8.7,23,0.00,,,0.00,VWS V14.00,2013-01-03 21:07:00,
2013-01-03 15:08:00,45.5,9.9,29.65,NNE,16,4.0,8.7,23,0.00,,,0.00,VWS V14.00,2013-01-03 21:08:00,
2013-01-03 15:10:00,45.5,9.9,29.65,NNE,13,2.7,8.7,23,0.00,,,0.00,VWS V14.00,2013-01-03 21:10:00,
2013-01-03 15:12:00,45.5,9.9,29.65,NE,51,5.8,8.7,23,0.00,,,0.00,VWS V14.00,2013-01-03 21:12:00,
2013-01-03 15:13:00,45.5,9.9,29.65,NNE,14,4.0,8.7,23,0.00,,,0.00,VWS V14.00,2013-01-03 21:13:00,
2013-01-03 15:14:00,45.5,9.9,29.65,NE,50,4.0,5.4,23,0.00,,,0.00,VWS V14.00,2013-01-03 21:14:00,
2013-01-03 15:15:00,45.5,9.9,29.65,NNE,27,5.4,6.7,23,0.00,,,0.00,VWS V14.00,2013-01-03 21:15:00,
2013-01-03 15:17:00,45.7,10.0,29.65,NNE,24,4.0,6.7,23,0.00,,,0.00,VWS V14.00,2013-01-03 21:17:00,
2013-01-03 15:18:00,45.9,10.2,29.65,NNE,12,4.9,6.7,23,0.00,,,0.00,VWS V14.00,2013-01-03 21:18:00,
2013-01-03 15:19:00,45.9,10.2,29.65,NE,56,2.7,6.7,23,0.00,,,0.00,VWS V14.00,2013-01-03 21:19:00,
2013-01-03 15:20:00,45.9,10.2,29.65,NNE,28,6.3,6.7,23,0.00,,,0.00,VWS V14.00,2013-01-03 21:20:00,
2013-01-03 15:22:00,45.9,10.2,29.65,North,8,3.6,6.7,23,0.00,,,0.00,VWS V14.00,2013-01-03 21:22:00,
2013-01-03 15:24:00,46.0,10.3,29.65,North,10,2.7,6.7,23,0.00,,,0.00,VWS V14.00,2013-01-03 21:24:00,
2013-01-03 15:25:00,46.0,10.3,29.65,North,1,4.9,6.7,23,0.00,,,0.00,VWS V14.00,2013-01-03 21:25:00,
2013-01-03 15:27:00,46.2,10.5,29.65,NNE,25,3.6,6.7,23,0.00,,,0.00,VWS V14.00,2013-01-03 21:27:00,
2013-01-03 15:28:00,46.2,10.5,29.65,North,357,3.6,3.6,23,0.00,,,0.00,VWS V14.00,2013-01-03 21:28:00,
2013-01-03 15:29:00,46.2,10.5,29.65,NNW,341,5.8,5.8,23,0.00,,,0.00,VWS V14.00,2013-01-03 21:29:00,
2013-01-03 15:30:00,46.2,10.5,29.65,NNW,342,4.9,5.8,23,0.00,,,0.00,VWS V14.00,2013-01-03 21:30:00,
2013-01-03 15:32:00,46.2,10.5,29.65,North,353,4.0,6.3,23,0.00,,,0.00,VWS V14.00,2013-01-03 21:32:00,
2013-01-03 15:34:00,46.2,10.5,29.65,North,0,5.4,6.3,23,0.00,,,0.00,VWS V14.00,2013-01-03 21:34:00,
2013-01-03 15:36:00,46.2,10.5,29.65,North,353,5.8,6.3,23,0.00,,,0.00,VWS V14.00,2013-01-03 21:36:00,
2013-01-03 15:37:00,46.2,10.5,29.65,North,353,5.4,6.3,23,0.00,,,0.00,VWS V14.00,2013-01-03 21:37:00,
2013-01-03 15:39:00,46.2,10.5,29.65,NNE,22,4.0,6.3,23,0.00,,,0.00,VWS V14.00,2013-01-03 21:39:00,
2013-01-03 15:40:00,46.0,10.3,29.65,NNE,23,3.1,6.3,23,0.00,,,0.00,VWS V14.00,2013-01-03 21:40:00,
2013-01-03 15:42:00,45.9,10.2,29.65,NNE,26,4.0,6.3,23,0.00,,,0.00,VWS V14.00,2013-01-03 21:42:00,
2013-01-03 15:44:00,45.7,10.0,29.65,NNE,16,3.6,4.9,23,0.00,,,0.00,VWS V14.00,2013-01-03 21:44:00,
2013-01-03 15:45:00,45.7,10.0,29.65,NNE,24,4.0,4.9,23,0.00,,,0.00,VWS V14.00,2013-01-03 21:45:00,
2013-01-03 15:47:00,45.5,9.9,29.65,NNE,19,4.0,5.8,23,0.00,,,0.00,VWS V14.00,2013-01-03 21:47:00,
2013-01-03 15:48:00,45.5,9.9,29.65,NNW,341,4.9,5.8,23,0.00,,,0.00,VWS V14.00,2013-01-03 21:48:00,
2013-01-03 15:50:00,45.3,9.7,29.65,North,0,3.1,8.1,23,0.00,,,0.00,VWS V14.00,2013-01-03 21:50:00,
2013-01-03 15:51:00,45.3,9.7,29.65,North,7,2.7,8.1,23,0.00,,,0.00,VWS V14.00,2013-01-03 21:51:00,
2013-01-03 15:53:00,45.3,9.7,29.65,North,353,5.8,8.1,23,0.00,,,0.00,VWS V14.00,2013-01-03 21:53:00,
2013-01-03 15:54:00,45.3,9.7,29.65,North,9,4.0,8.1,23,0.00,,,0.00,VWS V14.00,2013-01-03 21:54:00,
2013-01-03 15:56:00,45.3,9.7,29.65,North,10,3.1,8.1,23,0.00,,,0.00,VWS V14.00,2013-01-03 21:56:00,
2013-01-03 15:57:00,45.3,9.7,29.65,NNE,18,6.7,8.1,23,0.00,,,0.00,VWS V14.00,2013-01-03 21:57:00,
2013-01-03 15:58:00,45.3,9.7,29.65,NNE,21,5.8,8.1,23,0.00,,,0.00,VWS V14.00,2013-01-03 21:58:00,
2013-01-03 15:59:00,45.3,9.7,29.65,NNE,27,4.9,5.8,23,0.00,,,0.00,VWS V14.00,2013-01-03 21:59:00,
2013-01-03 16:02:00,45.1,9.6,29.65,NNE,24,5.8,8.7,23,0.00,,,0.00,VWS V14.00,2013-01-03 22:02:00,
2013-01-03 16:03:00,45.1,9.6,29.65,NNE,12,5.4,8.7,23,0.00,,,0.00,VWS V14.00,2013-01-03 22:03:00,
2013-01-03 16:04:00,45.1,9.6,29.65,NNE,14,6.3,8.7,23,0.00,,,0.00,VWS V14.00,2013-01-03 22:04:00,
2013-01-03 16:07:00,45.3,9.7,29.65,North,357,5.4,8.7,23,0.00,,,0.00,VWS V14.00,2013-01-03 22:07:00,
2013-01-03 16:08:00,45.3,9.7,29.65,North,350,8.1,8.7,23,0.00,,,0.00,VWS V14.00,2013-01-03 22:08:00,
2013-01-03 16:09:00,45.3,9.7,29.65,North,4,8.1,8.7,23,0.00,,,0.00,VWS V14.00,2013-01-03 22:09:00,
2013-01-03 16:13:00,45.3,9.7,29.65,NNE,20,6.3,8.7,23,0.00,,,0.00,VWS V14.00,2013-01-03 22:13:00,
2013-01-03 16:14:00,45.3,9.7,29.65,NNE,30,3.6,8.1,23,0.00,,,0.00,VWS V14.00,2013-01-03 22:14:00,
2013-01-03 16:15:00,45.3,9.7,29.65,NNW,333,3.1,8.1,23,0.00,,,0.00,VWS V14.00,2013-01-03 22:15:00,
2013-01-03 16:18:00,45.5,9.9,29.65,NNE,15,6.3,8.1,23,0.00,,,0.00,VWS V14.00,2013-01-03 22:18:00,
2013-01-03 16:20:00,45.3,9.7,29.65,NNE,23,4.0,8.1,23,0.00,,,0.00,VWS V14.00,2013-01-03 22:20:00,
2013-01-03 16:23:00,45.3,9.7,29.65,North,353,5.4,8.7,23,0.00,,,0.00,VWS V14.00,2013-01-03 22:23:00,
2013-01-03 16:24:00,45.5,9.9,29.65,North,6,3.1,8.7,23,0.00,,,0.00,VWS V14.00,2013-01-03 22:24:00,
2013-01-03 16:25:00,45.3,9.7,29.65,NNE,14,3.1,8.7,23,0.00,,,0.00,VWS V14.00,2013-01-03 22:25:00,
2013-01-03 16:26:00,45.3,9.7,29.65,NNE,20,4.0,8.7,23,0.00,,,0.00,VWS V14.00,2013-01-03 22:26:00,
2013-01-03 16:29:00,45.3,9.7,29.65,NNE,17,5.4,6.3,23,0.00,,,0.00,VWS V14.00,2013-01-03 22:29:00,
2013-01-03 16:31:00,45.1,9.6,29.65,North,353,7.6,7.6,23,0.00,,,0.00,VWS V14.00,2013-01-03 22:31:00,
2013-01-03 16:32:00,45.1,9.6,29.65,North,357,3.6,7.6,23,0.00,,,0.00,VWS V14.00,2013-01-03 22:32:00,
2013-01-03 16:34:00,45.1,9.6,29.65,NNE,14,2.7,7.6,23,0.00,,,0.00,VWS V14.00,2013-01-03 22:34:00,
2013-01-03 16:35:00,45.1,9.6,29.65,NNW,348,5.4,7.6,23,0.00,,,0.00,VWS V14.00,2013-01-03 22:35:00,
2013-01-03 16:37:00,45.1,9.6,29.65,North,357,3.1,7.6,23,0.00,,,0.00,VWS V14.00,2013-01-03 22:37:00,
2013-01-03 16:38:00,45.1,9.6,29.65,North,357,2.7,7.6,23,0.00,,,0.00,VWS V14.00,2013-01-03 22:38:00,
2013-01-03 16:40:00,45.1,9.6,29.65,North,7,2.7,7.6,23,0.00,,,0.00,VWS V14.00,2013-01-03 22:40:00,
2013-01-03 16:42:00,45.0,9.4,29.65,North,357,6.3,7.6,23,0.00,,,0.00,VWS V14.00,2013-01-03 22:42:00,
2013-01-03 16:44:00,45.0,9.4,29.65,North,5,4.0,5.4,23,0.00,,,0.00,VWS V14.00,2013-01-03 22:44:00,
2013-01-03 16:45:00,44.8,9.3,29.65,NNE,12,4.0,5.4,23,0.00,,,0.00,VWS V14.00,2013-01-03 22:45:00,
2013-01-03 16:47:00,44.8,9.3,29.65,North,11,5.8,5.8,23,0.00,,,0.00,VWS V14.00,2013-01-03 22:47:00,
2013-01-03 16:48:00,44.8,9.3,29.65,NNE,13,6.3,6.3,23,0.00,,,0.00,VWS V14.00,2013-01-03 22:48:00,
2013-01-03 16:49:00,44.8,9.3,29.65,NNE,16,5.8,6.3,23,0.00,,,0.00,VWS V14.00,2013-01-03 22:49:00,
2013-01-03 16:51:00,44.8,9.3,29.65,North,11,5.8,6.3,23,0.00,,,0.00,VWS V14.00,2013-01-03 22:51:00,
2013-01-03 16:52:00,44.8,9.3,29.65,NNE,15,3.6,6.7,23,0.00,,,0.00,VWS V14.00,2013-01-03 22:52:00,
2013-01-03 16:54:00,44.8,9.3,29.65,NNE,23,8.1,8.1,23,0.00,,,0.00,VWS V14.00,2013-01-03 22:54:00,
2013-01-03 16:57:00,44.8,9.3,29.65,NNE,33,4.0,8.1,23,0.00,,,0.00,VWS V14.00,2013-01-03 22:57:00,
2013-01-03 16:58:00,44.8,9.3,29.65,NE,36,3.6,8.1,23,0.00,,,0.00,VWS V14.00,2013-01-03 22:58:00,
2013-01-03 16:59:00,44.8,9.3,29.65,NNE,16,4.9,6.3,23,0.00,,,0.00,VWS V14.00,2013-01-03 22:59:00,
2013-01-03 17:03:00,44.6,9.1,29.65,NNE,17,0.0,6.3,23,0.00,,,0.00,VWS V14.00,2013-01-03 23:03:00,
2013-01-03 17:04:00,44.6,9.1,29.65,NNE,16,0.0,6.3,23,0.00,,,0.00,VWS V14.00,2013-01-03 23:04:00,
2013-01-03 17:06:00,44.4,8.9,29.65,NNE,20,0.0,6.3,23,0.00,,,0.00,VWS V14.00,2013-01-03 23:06:00,
2013-01-03 17:08:00,44.2,8.8,29.65,North,4,0.0,6.3,23,0.00,,,0.00,VWS V14.00,2013-01-03 23:08:00,
2013-01-03 17:09:00,44.2,8.8,29.65,NNE,24,0.0,6.3,23,0.00,,,0.00,VWS V14.00,2013-01-03 23:09:00,
2013-01-03 17:11:00,44.2,8.8,29.65,North,7,0.0,6.3,23,0.00,,,0.00,VWS V14.00,2013-01-03 23:11:00,
2013-01-03 17:12:00,44.2,8.8,29.65,NNE,30,0.0,6.3,23,0.00,,,0.00,VWS V14.00,2013-01-03 23:12:00,
2013-01-03 17:14:00,44.4,8.9,29.65,NNE,25,0.0,0.0,23,0.00,,,0.00,VWS V14.00,2013-01-03 23:14:00,
2013-01-03 17:15:00,44.4,8.9,29.65,NNE,15,0.0,0.0,23,0.00,,,0.00,VWS V14.00,2013-01-03 23:15:00,
2013-01-03 17:16:00,44.4,8.9,29.65,NNE,15,0.0,0.0,23,0.00,,,0.00,VWS V14.00,2013-01-03 23:16:00,
2013-01-03 17:17:00,44.4,8.9,29.65,NNE,13,0.0,0.0,23,0.00,,,0.00,VWS V14.00,2013-01-03 23:17:00,
2013-01-03 17:19:00,44.4,8.9,29.65,NE,38,0.0,0.0,23,0.00,,,0.00,VWS V14.00,2013-01-03 23:19:00,
2013-01-03 17:22:00,44.4,8.9,29.65,NNE,32,0.0,0.0,23,0.00,,,0.00,VWS V14.00,2013-01-03 23:22:00,
2013-01-03 17:26:00,44.4,8.9,29.65,NNW,348,0.0,0.0,23,0.00,,,0.00,VWS V14.00,2013-01-03 23:26:00,
2013-01-03 17:27:00,44.4,8.9,29.65,NNE,18,0.0,0.0,23,0.00,,,0.00,VWS V14.00,2013-01-03 23:27:00,
2013-01-03 17:32:00,44.4,8.9,29.65,NNE,12,0.0,0.0,23,0.00,,,0.00,VWS V14.00,2013-01-03 23:32:00,
2013-01-03 17:37:00,44.2,8.8,29.65,North,9,0.0,0.0,23,0.00,,,0.00,VWS V14.00,2013-01-03 23:37:00,
2013-01-03 17:38:00,44.2,8.8,29.65,North,7,0.0,0.0,23,0.00,,,0.00,VWS V14.00,2013-01-03 23:38:00,
2013-01-03 17:42:00,44.2,8.8,29.65,NE,46,0.0,0.0,23,0.00,,,0.00,VWS V14.00,2013-01-03 23:42:00,
2013-01-03 17:43:00,44.2,8.8,29.65,NE,37,0.0,0.0,23,0.00,,,0.00,VWS V14.00,2013-01-03 23:43:00,
2013-01-03 17:44:00,44.2,8.8,29.65,NNE,22,0.0,0.0,23,0.00,,,0.00,VWS V14.00,2013-01-03 23:44:00,
2013-01-03 17:48:00,44.2,8.8,29.65,NNE,17,0.0,0.0,23,0.00,,,0.00,VWS V14.00,2013-01-03 23:48:00,
2013-01-03 17:49:00,44.2,8.8,29.65,NNE,17,0.0,0.0,23,0.00,,,0.00,VWS V14.00,2013-01-03 23:49:00,
2013-01-03 17:50:00,44.2,8.8,29.65,NE,49,0.0,0.0,23,0.00,,,0.00,VWS V14.00,2013-01-03 23:50:00,
2013-01-03 17:54:00,44.2,8.8,29.65,NE,42,0.0,0.0,23,0.00,,,0.00,VWS V14.00,2013-01-03 23:54:00,
2013-01-03 17:55:00,44.2,8.8,29.65,NNE,16,0.0,0.0,23,0.00,,,0.00,VWS V14.00,2013-01-03 23:55:00,
2013-01-03 18:00:00,44.2,8.8,29.65,NNE,17,0.0,0.0,23,0.00,,,0.00,VWS V14.00,2013-01-04 00:00:00,
2013-01-03 18:01:00,44.2,8.8,29.65,North,9,0.0,0.0,23,0.00,,,0.00,VWS V14.00,2013-01-04 00:01:00,
2013-01-03 18:05:00,44.1,8.6,29.65,NNE,12,0.0,0.0,23,0.00,,,0.00,VWS V14.00,2013-01-04 00:05:00,
2013-01-03 18:06:00,44.1,8.6,29.65,North,7,0.0,0.0,23,0.00,,,0.00,VWS V14.00,2013-01-04 00:06:00,
2013-01-03 18:11:00,44.2,8.8,29.65,North,5,0.0,0.0,23,0.00,,,0.00,VWS V14.00,2013-01-04 00:11:00,
2013-01-03 18:12:00,44.2,8.8,29.65,North,8,0.0,0.0,23,0.00,,,0.00,VWS V14.00,2013-01-04 00:12:00,
2013-01-03 18:16:00,44.2,8.8,29.65,NNE,18,0.0,0.0,23,0.00,,,0.00,VWS V14.00,2013-01-04 00:16:00,
2013-01-03 18:17:00,44.2,8.8,29.65,NNE,14,0.0,0.0,23,0.00,,,0.00,VWS V14.00,2013-01-04 00:17:00,
2013-01-03 18:18:00,44.2,8.8,29.65,NNE,33,0.0,0.0,23,0.00,,,0.00,VWS V14.00,2013-01-04 00:18:00,
2013-01-03 18:19:00,44.2,8.8,29.65,NNE,23,0.0,0.0,23,0.00,,,0.00,VWS V14.00,2013-01-04 00:19:00,
2013-01-03 18:22:00,44.2,8.8,29.65,North,357,0.0,0.0,23,0.00,,,0.00,VWS V14.00,2013-01-04 00:22:00,
2013-01-03 18:23:00,44.2,8.8,29.65,North,357,0.0,0.0,23,0.00,,,0.00,VWS V14.00,2013-01-04 00:23:00,
2013-01-03 18:24:00,44.2,8.8,29.65,North,7,0.0,0.0,23,0.00,,,0.00,VWS V14.00,2013-01-04 00:24:00,
2013-01-03 18:27:00,44.1,8.6,29.65,NE,38,0.0,0.0,23,0.00,,,0.00,VWS V14.00,2013-01-04 00:27:00,
2013-01-03 18:29:00,44.2,8.8,29.65,NNE,19,0.0,0.0,23,0.00,,,0.00,VWS V14.00,2013-01-04 00:29:00,
2013-01-03 18:30:00,44.2,8.8,29.65,NNE,20,0.0,0.0,23,0.00,,,0.00,VWS V14.00,2013-01-04 00:30:00,
2013-01-03 18:32:00,44.2,8.8,29.65,NNE,18,0.0,0.0,23,0.00,,,0.00,VWS V14.00,2013-01-04 00:32:00,
2013-01-03 18:34:00,44.4,8.9,29.65,NNE,22,0.0,0.0,23,0.00,,,0.00,VWS V14.00,2013-01-04 00:34:00,
2013-01-03 18:36:00,44.4,8.9,29.65,NNE,20,0.0,0.0,23,0.00,,,0.00,VWS V14.00,2013-01-04 00:36:00,
2013-01-03 18:38:00,44.2,8.8,29.65,North,6,0.0,0.0,23,0.00,,,0.00,VWS V14.00,2013-01-04 00:38:00,
2013-01-03 18:39:00,44.2,8.8,29.65,North,8,0.0,0.0,23,0.00,,,0.00,VWS V14.00,2013-01-04 00:39:00,
2013-01-03 18:41:00,44.2,8.8,29.65,NNE,15,0.0,0.0,23,0.00,,,0.00,VWS V14.00,2013-01-04 00:41:00,
2013-01-03 18:44:00,44.1,8.6,29.65,North,11,0.0,0.0,23,0.00,,,0.00,VWS V14.00,2013-01-04 00:44:00,
2013-01-03 18:45:00,44.1,8.6,29.65,NNE,22,0.0,0.0,23,0.00,,,0.00,VWS V14.00,2013-01-04 00:45:00,
2013-01-03 18:46:00,44.2,8.8,29.65,NNE,20,0.0,0.0,23,0.00,,,0.00,VWS V14.00,2013-01-04 00:46:00,
2013-01-03 18:49:00,44.2,8.8,29.65,NNE,12,0.0,0.0,23,0.00,,,0.00,VWS V14.00,2013-01-04 00:49:00,
2013-01-03 18:51:00,44.2,8.8,29.65,NNE,13,0.0,0.0,23,0.00,,,0.00,VWS V14.00,2013-01-04 00:51:00,
2013-01-03 18:55:00,44.1,8.6,29.65,NNE,22,0.0,0.0,23,0.00,,,0.00,VWS V14.00,2013-01-04 00:55:00,
2013-01-03 18:57:00,44.1,8.6,29.65,North,7,0.0,0.0,23,0.00,,,0.00,VWS V14.00,2013-01-04 00:57:00,
2013-01-03 19:00:00,44.1,8.6,29.65,NNE,12,0.0,0.0,23,0.00,,,0.00,VWS V14.00,2013-01-04 01:00:00,
2013-01-03 19:03:00,44.1,8.6,29.62,NNE,23,0.0,0.0,23,0.00,,,0.00,VWS V14.00,2013-01-04 01:03:00,
2013-01-03 19:05:00,44.1,8.6,29.62,North,7,0.0,0.0,23,0.00,,,0.00,VWS V14.00,2013-01-04 01:05:00,
2013-01-03 19:06:00,44.1,8.6,29.62,North,8,0.0,0.0,23,0.00,,,0.00,VWS V14.00,2013-01-04 01:06:00,
2013-01-03 19:09:00,44.1,8.6,29.62,NNE,30,0.0,0.0,23,0.00,,,0.00,VWS V14.00,2013-01-04 01:09:00,
2013-01-03 19:10:00,44.1,8.6,29.62,NNE,19,0.0,0.0,23,0.00,,,0.00,VWS V14.00,2013-01-04 01:10:00,
2013-01-03 19:11:00,44.1,8.6,29.62,NNE,19,0.0,0.0,23,0.00,,,0.00,VWS V14.00,2013-01-04 01:11:00,
2013-01-03 19:13:00,44.1,8.6,29.62,NNE,23,0.0,0.0,23,0.00,,,0.00,VWS V14.00,2013-01-04 01:13:00,
2013-01-03 19:16:00,43.9,8.5,29.62,NNE,15,0.0,0.0,23,0.00,,,0.00,VWS V14.00,2013-01-04 01:16:00,
2013-01-03 19:17:00,43.9,8.5,29.62,NNE,28,0.0,0.0,23,0.00,,,0.00,VWS V14.00,2013-01-04 01:17:00,
2013-01-03 19:18:00,43.9,8.5,29.62,NNE,20,0.0,0.0,23,0.00,,,0.00,VWS V14.00,2013-01-04 01:18:00,
2013-01-03 19:21:00,44.1,8.6,29.62,NNE,15,0.0,0.0,23,0.00,,,0.00,VWS V14.00,2013-01-04 01:21:00,
2013-01-03 19:22:00,44.1,8.6,29.62,NNE,23,0.0,0.0,23,0.00,,,0.00,VWS V14.00,2013-01-04 01:22:00,
2013-01-03 19:23:00,44.1,8.6,29.62,North,357,0.0,0.0,23,0.00,,,0.00,VWS V14.00,2013-01-04 01:23:00,
2013-01-03 19:27:00,43.9,8.5,29.62,NNE,17,0.0,0.0,23,0.00,,,0.00,VWS V14.00,2013-01-04 01:27:00,
2013-01-03 19:28:00,43.9,8.5,29.62,NNE,16,0.0,0.0,23,0.00,,,0.00,VWS V14.00,2013-01-04 01:28:00,
2013-01-03 19:29:00,43.9,8.5,29.62,NNE,13,0.0,0.0,23,0.00,,,0.00,VWS V14.00,2013-01-04 01:29:00,
2013-01-03 19:32:00,43.9,8.5,29.62,North,11,0.0,0.0,23,0.00,,,0.00,VWS V14.00,2013-01-04 01:32:00,
2013-01-03 19:34:00,43.7,8.3,29.62,North,11,0.0,0.0,23,0.00,,,0.00,VWS V14.00,2013-01-04 01:34:00,
2013-01-03 19:35:00,43.7,8.3,29.62,North,11,0.0,0.0,23,0.00,,,0.00,VWS V14.00,2013-01-04 01:35:00,
2013-01-03 19:37:00,43.7,8.3,29.62,North,11,0.0,0.0,23,0.00,,,0.00,VWS V14.00,2013-01-04 01:37:00,
2013-01-03 19:38:00,43.7,8.3,29.62,North,11,0.0,0.0,23,0.00,,,0.00,VWS V14.00,2013-01-04 01:38:00,
2013-01-03 19:39:00,43.7,8.3,29.62,North,8,0.0,0.0,23,0.00,,,0.00,VWS V14.00,2013-01-04 01:39:00,
2013-01-03 19:41:00,43.7,8.3,29.62,North,9,0.0,0.0,23,0.00,,,0.00,VWS V14.00,2013-01-04 01:41:00,
2013-01-03 19:43:00,43.7,8.3,29.62,North,9,0.0,0.0,23,0.00,,,0.00,VWS V14.00,2013-01-04 01:43:00,
2013-01-03 19:45:00,43.7,8.3,29.65,North,8,0.0,0.0,23,0.00,,,0.00,VWS V14.00,2013-01-04 01:45:00,
2013-01-03 19:47:00,43.7,8.3,29.65,NNE,15,0.0,0.0,23,0.00,,,0.00,VWS V14.00,2013-01-04 01:47:00,
2013-01-03 19:48:00,43.7,8.3,29.65,North,10,0.0,0.0,23,0.00,,,0.00,VWS V14.00,2013-01-04 01:48:00,
2013-01-03 19:49:00,43.7,8.3,29.65,North,6,0.0,0.0,23,0.00,,,0.00,VWS V14.00,2013-01-04 01:49:00,
2013-01-03 19:51:00,43.7,8.3,29.65,North,357,0.0,0.0,23,0.00,,,0.00,VWS V14.00,2013-01-04 01:51:00,
2013-01-03 19:52:00,43.7,8.3,29.65,North,357,0.0,0.0,23,0.00,,,0.00,VWS V14.00,2013-01-04 01:52:00,
2013-01-03 19:54:00,43.5,8.2,29.65,North,357,0.0,0.0,23,0.00,,,0.00,VWS V14.00,2013-01-04 01:54:00,
2013-01-03 19:55:00,43.5,8.2,29.65,North,357,0.0,0.0,23,0.00,,,0.00,VWS V14.00,2013-01-04 01:55:00,
2013-01-03 19:56:00,43.5,8.2,29.65,North,357,0.0,0.0,23,0.00,,,0.00,VWS V14.00,2013-01-04 01:56:00,
2013-01-03 19:58:00,43.5,8.2,29.65,North,357,0.0,0.0,23,0.00,,,0.00,VWS V14.00,2013-01-04 01:58:00,
2013-01-03 19:59:00,43.5,8.2,29.65,North,357,0.0,0.0,23,0.00,,,0.00,VWS V14.00,2013-01-04 01:59:00,
2013-01-03 20:01:00,43.5,8.2,29.62,North,357,0.0,0.0,23,0.00,,,0.00,VWS V14.00,2013-01-04 02:01:00,
2013-01-03 20:02:00,43.5,8.2,29.62,North,357,0.0,0.0,23,0.00,,,0.00,VWS V14.00,2013-01-04 02:02:00,
2013-01-03 20:04:00,43.5,8.2,29.62,North,357,0.0,0.0,23,0.00,,,0.00,VWS V14.00,2013-01-04 02:04:00,
2013-01-03 20:05:00,43.3,8.0,29.62,North,3,0.0,0.0,23,0.00,,,0.00,VWS V14.00,2013-01-04 02:05:00,
2013-01-03 20:06:00,43.5,8.2,29.62,NNE,25,0.0,0.0,23,0.00,,,0.00,VWS V14.00,2013-01-04 02:06:00,
2013-01-03 20:08:00,43.5,8.2,29.62,NNE,25,0.0,0.0,23,0.00,,,0.00,VWS V14.00,2013-01-04 02:08:00,
2013-01-03 20:09:00,43.5,8.2,29.62,NNE,25,0.0,0.0,23,0.00,,,0.00,VWS V14.00,2013-01-04 02:09:00,
2013-01-03 20:10:00,43.5,8.2,29.62,NNE,25,0.0,0.0,23,0.00,,,0.00,VWS V14.00,2013-01-04 02:10:00,
2013-01-03 20:11:00,43.3,8.0,29.62,NE,37,0.0,0.0,23,0.00,,,0.00,VWS V14.00,2013-01-04 02:11:00,
2013-01-03 20:13:00,43.5,8.2,29.62,NE,36,0.0,0.0,23,0.00,,,0.00,VWS V14.00,2013-01-04 02:13:00,
2013-01-03 20:15:00,43.5,8.2,29.62,NE,36,0.0,0.0,23,0.00,,,0.00,VWS V14.00,2013-01-04 02:15:00,
2013-01-03 20:16:00,43.5,8.2,29.62,NE,36,0.0,0.0,23,0.00,,,0.00,VWS V14.00,2013-01-04 02:16:00,
2013-01-03 20:19:00,43.3,8.0,29.62,NE,38,0.0,0.0,23,0.00,,,0.00,VWS V14.00,2013-01-04 02:19:00,
2013-01-03 20:20:00,43.3,8.0,29.62,NE,38,0.0,0.0,23,0.00,,,0.00,VWS V14.00,2013-01-04 02:20:00,
2013-01-03 20:22:00,43.3,8.0,29.62,NE,34,0.0,0.0,23,0.00,,,0.00,VWS V14.00,2013-01-04 02:22:00,
2013-01-03 20:24:00,43.3,8.0,29.62,NE,35,0.0,0.0,23,0.00,,,0.00,VWS V14.00,2013-01-04 02:24:00,
2013-01-03 20:25:00,43.3,8.0,29.62,NNE,27,0.0,0.0,23,0.00,,,0.00,VWS V14.00,2013-01-04 02:25:00,
2013-01-03 20:26:00,43.3,8.0,29.62,NE,35,0.0,0.0,23,0.00,,,0.00,VWS V14.00,2013-01-04 02:26:00,
2013-01-03 20:28:00,43.3,8.0,29.62,NNE,19,0.0,0.0,23,0.00,,,0.00,VWS V14.00,2013-01-04 02:28:00,
2013-01-03 20:30:00,43.3,8.0,29.62,NNE,32,0.0,0.0,23,0.00,,,0.00,VWS V14.00,2013-01-04 02:30:00,
2013-01-03 20:31:00,43.3,8.0,29.62,NNE,31,0.0,0.0,23,0.00,,,0.00,VWS V14.00,2013-01-04 02:31:00,
2013-01-03 20:32:00,43.3,8.0,29.62,NNE,31,0.0,0.0,23,0.00,,,0.00,VWS V14.00,2013-01-04 02:32:00,
2013-01-03 20:34:00,43.3,8.0,29.62,NNE,31,0.0,0.0,23,0.00,,,0.00,VWS V14.00,2013-01-04 02:34:00,
2013-01-03 20:35:00,43.3,8.0,29.62,North,8,0.0,0.0,23,0.00,,,0.00,VWS V14.00,2013-01-04 02:35:00,
2013-01-03 20:37:00,43.3,8.0,29.62,NNW,342,0.0,0.0,23,0.00,,,0.00,VWS V14.00,2013-01-04 02:37:00,
2013-01-03 20:40:00,43.3,8.0,29.62,North,353,0.0,0.0,23,0.00,,,0.00,VWS V14.00,2013-01-04 02:40:00,
2013-01-03 20:41:00,43.3,8.0,29.62,North,0,0.0,0.0,23,0.00,,,0.00,VWS V14.00,2013-01-04 02:41:00,
2013-01-03 20:43:00,43.3,8.0,29.62,NNW,338,0.0,0.0,23,0.00,,,0.00,VWS V14.00,2013-01-04 02:43:00,
2013-01-03 20:44:00,43.3,8.0,29.62,NNW,333,0.0,0.0,23,0.00,,,0.00,VWS V14.00,2013-01-04 02:44:00,
2013-01-03 20:46:00,43.3,8.0,29.65,North,353,0.0,0.0,23,0.00,,,0.00,VWS V14.00,2013-01-04 02:46:00,
2013-01-03 20:50:00,43.3,8.0,29.65,NNW,346,0.0,0.0,23,0.00,,,0.00,VWS V14.00,2013-01-04 02:50:00,
2013-01-03 20:51:00,43.3,8.0,29.65,NNW,346,0.0,0.0,23,0.00,,,0.00,VWS V14.00,2013-01-04 02:51:00,
2013-01-03 20:52:00,43.3,8.0,29.65,NNW,346,0.0,0.0,23,0.00,,,0.00,VWS V14.00,2013-01-04 02:52:00,
2013-01-03 20:57:00,43.3,8.0,29.65,NNE,14,0.0,0.0,23,0.00,,,0.00,VWS V14.00,2013-01-04 02:57:00,
2013-01-03 20:58:00,43.3,8.0,29.65,NNE,14,0.0,0.0,23,0.00,,,0.00,VWS V14.00,2013-01-04 02:58:00,
2013-01-03 20:59:00,43.3,8.0,29.65,NNE,14,0.0,0.0,23,0.00,,,0.00,VWS V14.00,2013-01-04 02:59:00,
2013-01-03 21:03:00,43.2,7.9,29.65,NNE,14,0.0,0.0,23,0.00,,,0.00,VWS V14.00,2013-01-04 03:03:00,
2013-01-03 21:04:00,43.2,7.9,29.65,NNE,15,0.0,0.0,23,0.00,,,0.00,VWS V14.00,2013-01-04 03:04:00,
2013-01-03 21:05:00,43.2,7.9,29.65,NNE,15,0.0,0.0,23,0.00,,,0.00,VWS V14.00,2013-01-04 03:05:00,
2013-01-03 21:09:00,43.2,7.9,29.65,NNE,15,0.0,0.0,23,0.00,,,0.00,VWS V14.00,2013-01-04 03:09:00,
2013-01-03 21:10:00,43.2,7.9,29.65,NNE,15,0.0,0.0,23,0.00,,,0.00,VWS V14.00,2013-01-04 03:10:00,
2013-01-03 21:16:00,43.3,8.0,29.65,NNE,31,0.0,0.0,23,0.00,,,0.00,VWS V14.00,2013-01-04 03:16:00,
2013-01-03 21:17:00,43.3,8.0,29.65,NNE,20,0.0,0.0,23,0.00,,,0.00,VWS V14.00,2013-01-04 03:17:00,
2013-01-03 21:19:00,43.3,8.0,29.65,NNE,20,0.0,0.0,23,0.00,,,0.00,VWS V14.00,2013-01-04 03:19:00,
2013-01-03 21:21:00,43.3,8.0,29.65,NNE,17,0.0,0.0,23,0.00,,,0.00,VWS V14.00,2013-01-04 03:21:00,
2013-01-03 21:22:00,43.3,8.0,29.65,NNE,17,0.0,0.0,23,0.00,,,0.00,VWS V14.00,2013-01-04 03:22:00,
2013-01-03 21:24:00,43.3,8.0,29.65,NNE,18,0.0,0.0,23,0.00,,,0.00,VWS V14.00,2013-01-04 03:24:00,
2013-01-03 21:27:00,43.3,8.0,29.65,NNE,19,0.0,0.0,23,0.00,,,0.00,VWS V14.00,2013-01-04 03:27:00,
2013-01-03 21:28:00,43.3,8.0,29.65,NNE,19,0.0,0.0,23,0.00,,,0.00,VWS V14.00,2013-01-04 03:28:00,
2013-01-03 21:30:00,43.3,8.0,29.65,NNE,19,0.0,0.0,23,0.00,,,0.00,VWS V14.00,2013-01-04 03:30:00,
2013-01-03 21:33:00,43.3,8.0,29.62,NNE,17,0.0,0.0,23,0.00,,,0.00,VWS V14.00,2013-01-04 03:33:00,
2013-01-03 21:35:00,43.3,8.0,29.62,North,0,0.0,0.0,23,0.00,,,0.00,VWS V14.00,2013-01-04 03:35:00,
2013-01-03 21:37:00,43.3,8.0,29.62,North,6,0.0,0.0,23,0.00,,,0.00,VWS V14.00,2013-01-04 03:37:00,
2013-01-03 21:40:00,43.5,8.2,29.62,NNE,14,0.0,0.0,23,0.00,,,0.00,VWS V14.00,2013-01-04 03:40:00,
2013-01-03 21:41:00,43.3,8.0,29.62,NNE,15,0.0,0.0,23,0.00,,,0.00,VWS V14.00,2013-01-04 03:41:00,
2013-01-03 21:42:00,43.5,8.2,29.62,NNE,16,0.0,0.0,23,0.00,,,0.00,VWS V14.00,2013-01-04 03:42:00,
2013-01-03 21:43:00,43.5,8.2,29.62,NNE,18,0.0,0.0,23,0.00,,,0.00,VWS V14.00,2013-01-04 03:43:00,
2013-01-03 21:47:00,43.5,8.2,29.62,NNE,16,0.0,0.0,23,0.00,,,0.00,VWS V14.00,2013-01-04 03:47:00,
2013-01-03 21:49:00,43.5,8.2,29.62,NNE,15,0.0,0.0,23,0.00,,,0.00,VWS V14.00,2013-01-04 03:49:00,
2013-01-03 21:50:00,43.5,8.2,29.62,NNE,15,0.0,0.0,23,0.00,,,0.00,VWS V14.00,2013-01-04 03:50:00,
2013-01-03 21:51:00,43.5,8.2,29.62,NNE,19,0.0,0.0,23,0.00,,,0.00,VWS V14.00,2013-01-04 03:51:00,
2013-01-03 21:52:00,43.5,8.2,29.62,NNE,19,0.0,0.0,23,0.00,,,0.00,VWS V14.00,2013-01-04 03:52:00,
2013-01-03 21:55:00,43.5,8.2,29.62,NE,40,0.0,0.0,23,0.00,,,0.00,VWS V14.00,2013-01-04 03:55:00,
2013-01-03 21:56:00,43.5,8.2,29.62,NE,38,0.0,0.0,23,0.00,,,0.00,VWS V14.00,2013-01-04 03:56:00,
2013-01-03 21:57:00,43.5,8.2,29.62,NE,41,0.0,0.0,23,0.00,,,0.00,VWS V14.00,2013-01-04 03:57:00,
2013-01-03 22:01:00,43.5,8.2,29.62,NNE,33,0.0,0.0,23,0.00,,,0.00,VWS V14.00,2013-01-04 04:01:00,
2013-01-03 22:03:00,43.5,8.2,29.62,NNE,24,0.0,0.0,23,0.00,,,0.00,VWS V14.00,2013-01-04 04:03:00,
2013-01-03 22:06:00,43.5,8.2,29.62,NNE,13,0.0,0.0,23,0.00,,,0.00,VWS V14.00,2013-01-04 04:06:00,
2013-01-03 22:07:00,43.5,8.2,29.62,NNE,14,0.0,0.0,23,0.00,,,0.00,VWS V14.00,2013-01-04 04:07:00,
2013-01-03 22:08:00,43.5,8.2,29.62,NNE,15,0.0,0.0,23,0.00,,,0.00,VWS V14.00,2013-01-04 04:08:00,
2013-01-03 22:09:00,43.5,8.2,29.62,NNE,26,0.0,0.0,23,0.00,,,0.00,VWS V14.00,2013-01-04 04:09:00,
2013-01-03 22:11:00,43.5,8.2,29.62,NNE,16,0.0,0.0,23,0.00,,,0.00,VWS V14.00,2013-01-04 04:11:00,
2013-01-03 22:13:00,43.5,8.2,29.62,NNE,23,0.0,0.0,23,0.00,,,0.00,VWS V14.00,2013-01-04 04:13:00,
2013-01-03 22:14:00,43.5,8.2,29.62,NNE,20,0.0,0.0,23,0.00,,,0.00,VWS V14.00,2013-01-04 04:14:00,
2013-01-03 22:16:00,43.7,8.3,29.62,NNE,29,0.0,0.0,23,0.00,,,0.00,VWS V14.00,2013-01-04 04:16:00,
2013-01-03 22:18:00,43.7,8.3,29.62,NNE,26,0.0,0.0,23,0.00,,,0.00,VWS V14.00,2013-01-04 04:18:00,
2013-01-03 22:22:00,43.7,8.3,29.62,NE,38,0.0,0.0,23,0.00,,,0.00,VWS V14.00,2013-01-04 04:22:00,
2013-01-03 22:23:00,43.7,8.3,29.62,NNE,25,0.0,0.0,23,0.00,,,0.00,VWS V14.00,2013-01-04 04:23:00,
2013-01-03 22:27:00,43.5,8.2,29.62,NE,34,0.0,0.0,23,0.00,,,0.00,VWS V14.00,2013-01-04 04:27:00,
2013-01-03 22:28:00,43.5,8.2,29.62,NE,34,0.0,0.0,23,0.00,,,0.00,VWS V14.00,2013-01-04 04:28:00,
2013-01-03 22:33:00,43.7,8.3,29.59,ENE,72,0.0,0.0,23,0.00,,,0.00,VWS V14.00,2013-01-04 04:33:00,
2013-01-03 22:34:00,43.7,8.3,29.59,ENE,72,0.0,0.0,23,0.00,,,0.00,VWS V14.00,2013-01-04 04:34:00,
2013-01-03 22:37:00,43.7,8.3,29.59,ENE,71,0.0,0.0,23,0.00,,,0.00,VWS V14.00,2013-01-04 04:37:00,
2013-01-03 22:38:00,43.5,8.2,29.59,ENE,71,0.0,0.0,23,0.00,,,0.00,VWS V14.00,2013-01-04 04:38:00,
2013-01-03 22:42:00,43.3,8.0,29.59,ENE,71,0.0,0.0,23,0.00,,,0.00,VWS V14.00,2013-01-04 04:42:00,
2013-01-03 22:43:00,43.3,8.0,29.59,ENE,71,0.0,0.0,23,0.00,,,0.00,VWS V14.00,2013-01-04 04:43:00,
2013-01-03 22:44:00,43.3,8.0,29.59,ENE,71,0.0,0.0,23,0.00,,,0.00,VWS V14.00,2013-01-04 04:44:00,
2013-01-03 22:48:00,43.3,8.0,29.59,ENE,71,0.0,0.0,23,0.00,,,0.00,VWS V14.00,2013-01-04 04:48:00,
2013-01-03 22:49:00,43.3,8.0,29.59,ENE,71,0.0,0.0,23,0.00,,,0.00,VWS V14.00,2013-01-04 04:49:00,
2013-01-03 22:51:00,43.3,8.0,29.59,ENE,72,0.0,0.0,23,0.00,,,0.00,VWS V14.00,2013-01-04 04:51:00,
2013-01-03 22:53:00,43.3,8.0,29.59,ENE,72,0.0,0.0,23,0.00,,,0.00,VWS V14.00,2013-01-04 04:53:00,
2013-01-03 22:54:00,43.3,8.0,29.59,ENE,72,0.0,0.0,23,0.00,,,0.00,VWS V14.00,2013-01-04 04:54:00,
2013-01-03 22:57:00,43.2,7.9,29.59,ENE,72,0.0,0.0,23,0.00,,,0.00,VWS V14.00,2013-01-04 04:57:00,
2013-01-03 22:59:00,43.0,7.7,29.59,ENE,72,0.0,0.0,23,0.00,,,0.00,VWS V14.00,2013-01-04 04:59:00,
2013-01-03 23:00:00,43.0,7.7,29.59,ENE,72,0.0,0.0,23,0.00,,,0.00,VWS V14.00,2013-01-04 05:00:00,
2013-01-03 23:02:00,43.0,7.7,29.62,ENE,72,0.0,0.0,23,0.00,,,0.00,VWS V14.00,2013-01-04 05:02:00,
2013-01-03 23:04:00,43.0,7.7,29.62,North,353,0.0,0.0,23,0.00,,,0.00,VWS V14.00,2013-01-04 05:04:00,
2013-01-03 23:05:00,43.0,7.7,29.62,NNW,333,0.0,0.0,23,0.00,,,0.00,VWS V14.00,2013-01-04 05:05:00,
2013-01-03 23:09:00,43.0,7.7,29.62,NNW,333,0.0,0.0,23,0.00,,,0.00,VWS V14.00,2013-01-04 05:09:00,
2013-01-03 23:10:00,43.0,7.7,29.62,NNW,333,0.0,0.0,23,0.00,,,0.00,VWS V14.00,2013-01-04 05:10:00,
2013-01-03 23:11:00,43.0,7.7,29.62,NNW,333,0.0,0.0,23,0.00,,,0.00,VWS V14.00,2013-01-04 05:11:00,
2013-01-03 23:14:00,42.8,7.6,29.62,NNW,333,0.0,0.0,23,0.00,,,0.00,VWS V14.00,2013-01-04 05:14:00,
2013-01-03 23:16:00,42.8,7.6,29.62,NNW,333,0.0,0.0,23,0.00,,,0.00,VWS V14.00,2013-01-04 05:16:00,
2013-01-03 23:19:00,42.8,7.6,29.62,NNW,333,0.0,0.0,23,0.00,,,0.00,VWS V14.00,2013-01-04 05:19:00,
2013-01-03 23:20:00,42.8,7.6,29.62,NNW,333,0.0,0.0,23,0.00,,,0.00,VWS V14.00,2013-01-04 05:20:00,
2013-01-03 23:23:00,42.6,7.4,29.62,NNW,333,0.0,0.0,23,0.00,,,0.00,VWS V14.00,2013-01-04 05:23:00,
2013-01-03 23:24:00,42.6,7.4,29.62,NNW,333,0.0,0.0,23,0.00,,,0.00,VWS V14.00,2013-01-04 05:24:00,
2013-01-03 23:26:00,42.4,7.3,29.62,NNW,333,0.0,0.0,23,0.00,,,0.00,VWS V14.00,2013-01-04 05:26:00,
2013-01-03 23:27:00,42.4,7.3,29.62,NNW,333,0.0,0.0,23,0.00,,,0.00,VWS V14.00,2013-01-04 05:27:00,
2013-01-03 23:28:00,42.4,7.3,29.62,NNW,333,0.0,0.0,23,0.00,,,0.00,VWS V14.00,2013-01-04 05:28:00,
2013-01-03 23:31:00,42.4,7.3,29.59,NNW,333,0.0,0.0,23,0.00,,,0.00,VWS V14.00,2013-01-04 05:31:00,
2013-01-03 23:33:00,42.4,7.3,29.59,NNW,333,0.0,0.0,23,0.00,,,0.00,VWS V14.00,2013-01-04 05:33:00,
2013-01-03 23:34:00,42.3,7.1,29.59,NNW,333,0.0,0.0,23,0.00,,,0.00,VWS V14.00,2013-01-04 05:34:00,
2013-01-03 23:35:00,42.3,7.1,29.59,NNW,333,0.0,0.0,23,0.00,,,0.00,VWS V14.00,2013-01-04 05:35:00,
2013-01-03 23:37:00,42.3,7.1,29.59,NNW,333,0.0,0.0,23,0.00,,,0.00,VWS V14.00,2013-01-04 05:37:00,
2013-01-03 23:40:00,42.3,7.1,29.59,NNW,333,0.0,0.0,23,0.00,,,0.00,VWS V14.00,2013-01-04 05:40:00,
2013-01-03 23:41:00,42.3,7.1,29.59,NNW,333,0.0,0.0,23,0.00,,,0.00,VWS V14.00,2013-01-04 05:41:00,
2013-01-03 23:43:00,42.3,7.1,29.59,NNW,333,0.0,0.0,23,0.00,,,0.00,VWS V14.00,2013-01-04 05:43:00,
2013-01-03 23:44:00,42.3,7.1,29.59,NNW,333,0.0,0.0,23,0.00,,,0.00,VWS V14.00,2013-01-04 05:44:00,
2013-01-03 23:47:00,42.3,7.1,29.59,NNW,333,0.0,0.0,23,0.00,,,0.00,VWS V14.00,2013-01-04 05:47:00,
2013-01-03 23:48:00,42.3,7.1,29.59,NNW,333,0.0,0.0,23,0.00,,,0.00,VWS V14.00,2013-01-04 05:48:00,
2013-01-03 23:49:00,42.3,7.1,29.59,NNW,333,0.0,0.0,23,0.00,,,0.00,VWS V14.00,2013-01-04 05:49:00,
2013-01-03 23:52:00,42.3,7.1,29.59,NNW,333,0.0,0.0,23,0.00,,,0.00,VWS V14.00,2013-01-04 05:52:00,
2013-01-03 23:53:00,42.3,7.1,29.59,NNW,333,0.0,0.0,23,0.00,,,0.00,VWS V14.00,2013-01-04 05:53:00,
2013-01-03 23:54:00,42.1,7.0,29.59,NNW,333,0.0,0.0,23,0.00,,,0.00,VWS V14.00,2013-01-04 05:54:00,
2013-01-03 23:55:00,42.1,7.0,29.59,NNW,333,0.0,0.0,23,0.00,,,0.00,VWS V14.00,2013-01-04 05:55:00,
2013-01-03 23:58:00,42.1,7.0,29.59,NNW,333,0.0,0.0,23,0.00,,,0.00,VWS V14.00,2013-01-04 05:58:00,
2013-01-03 23:59:00,42.1,7.0,29.59,NNW,333,0.0,0.0,23,0.00,,,0.00,VWS V14.00,2013-01-04 05:59:00,